Observation data for Odell on 12/07/2018      Previous  Date       Current Mesonet Observations  Soil Data  Daily Summary Page  Observations in Plain Language
KOD1 070600Z 00008KT 04/M02 A3035 RMK A01 T00351016  RH  069%=      5-min Rain = 0
KOD1 070601Z 00010KT 04/M02 A3035 RMK A01 T00351016  RH  069%=      5-min Rain = 0
KOD1 070602Z 00010KT 04/M02 A3035 RMK A01 T00351016  RH  069%=      5-min Rain = 0
KOD1 070603Z 01010KT 04/M02 A3035 RMK A01 T00351016  RH  069%=      5-min Rain = 0
KOD1 070604Z 01010KT 04/M02 A3035 RMK A01 T00351016  RH  069%=      5-min Rain = 0
KOD1 070605Z 01012KT 04/M02 A3034 RMK A01 T00351016  RH  069%=      5-min Rain = 0
KOD1 070606Z 36011KT 04/M02 A3034 RMK A01 T00351016  RH  069%=      5-min Rain = 0
KOD1 070607Z 00011KT 04/M02 A3034 RMK A01 T00351016  RH  069%=      5-min Rain = 0
KOD1 070608Z 01012KT 03/M02 A3034 RMK A01 T00341016  RH  069%=      5-min Rain = 0
KOD1 070609Z 01010KT 03/M02 A3034 RMK A01 T00341016  RH  070%=      5-min Rain = 0
KOD1 070610Z 01011KT 03/M02 A3034 RMK A01 T00341016  RH  070%=      5-min Rain = 0
KOD1 070611Z 00011KT 03/M02 A3034 RMK A01 T00341016  RH  070%=      5-min Rain = 0
KOD1 070612Z 01011KT 03/M02 A3034 RMK A01 T00341016  RH  070%=      5-min Rain = 0
KOD1 070613Z 00011KT 03/M02 A3034 RMK A01 T00341016  RH  070%=      5-min Rain = 0
KOD1 070614Z 00009KT 03/M02 A3034 RMK A01 T00341016  RH  070%=      5-min Rain = 0
KOD1 070615Z 00010KT 03/M02 A3034 RMK A01 T00341015  RH  070%=      5-min Rain = 0
KOD1 070616Z 00011KT 03/M02 A3034 RMK A01 T00341016  RH  070%=      5-min Rain = 0
KOD1 070617Z 01012KT 03/M02 A3034 RMK A01 T00341016  RH  070%=      5-min Rain = 0
KOD1 070618Z 00011KT 03/M02 A3034 RMK A01 T00341016  RH  070%=      5-min Rain = 0
KOD1 070619Z 01011KT 03/M02 A3034 RMK A01 T00341016  RH  070%=      5-min Rain = 0
KOD1 070620Z 01011KT 03/M02 A3034 RMK A01 T00341015  RH  070%=      5-min Rain = 0
KOD1 070621Z 01010KT 03/M02 A3034 RMK A01 T00341015  RH  070%=      5-min Rain = 0
KOD1 070622Z 01010KT 03/M02 A3034 RMK A01 T00341015  RH  070%=      5-min Rain = 0
KOD1 070623Z 01009KT 03/M02 A3034 RMK A01 T00341015  RH  070%=      5-min Rain = 0
KOD1 070624Z 01011KT 03/M02 A3034 RMK A01 T00341015  RH  070%=      5-min Rain = 0
KOD1 070625Z 01011KT 03/M02 A3033 RMK A01 T00341015  RH  070%=      5-min Rain = 0
KOD1 070626Z 01010KT 03/M02 A3033 RMK A01 T00341015  RH  070%=      5-min Rain = 0
KOD1 070627Z 01009KT 03/M02 A3033 RMK A01 T00341015  RH  071%=      5-min Rain = 0
KOD1 070628Z 01012KT 03/M02 A3033 RMK A01 T00341015  RH  070%=      5-min Rain = 0
KOD1 070629Z 01012KT 03/M02 A3033 RMK A01 T00341015  RH  071%=      5-min Rain = 0
KOD1 070630Z 01011KT 03/M02 A3033 RMK A01 T00331015  RH  071%=      5-min Rain = 0
KOD1 070631Z 01013KT 03/M02 A3033 RMK A01 T00331015  RH  071%=      5-min Rain = 0
KOD1 070632Z 01012KT 03/M02 A3033 RMK A01 T00331015  RH  071%=      5-min Rain = 0
KOD1 070633Z 01011KT 03/M02 A3034 RMK A01 T00331015  RH  071%=      5-min Rain = 0
KOD1 070634Z 02011KT 03/M02 A3034 RMK A01 T00331015  RH  071%=      5-min Rain = 0
KOD1 070635Z 01010KT 03/M02 A3034 RMK A01 T00331015  RH  071%=      5-min Rain = 0
KOD1 070636Z 01008KT 03/M02 A3034 RMK A01 T00331015  RH  071%=      5-min Rain = 0
KOD1 070637Z 02009KT 03/M01 A3034 RMK A01 T00331014  RH  071%=      5-min Rain = 0
KOD1 070638Z 01011KT 03/M01 A3034 RMK A01 T00331014  RH  071%=      5-min Rain = 0
KOD1 070639Z 01012KT 03/M02 A3034 RMK A01 T00331015  RH  071%=      5-min Rain = 0
KOD1 070640Z 01011KT 03/M02 A3034 RMK A01 T00331015  RH  071%=      5-min Rain = 0
KOD1 070641Z 01012KT 03/M02 A3033 RMK A01 T00331015  RH  071%=      5-min Rain = 0
KOD1 070642Z 01011KT 03/M01 A3033 RMK A01 T00331014  RH  071%=      5-min Rain = 0
KOD1 070643Z 01012KT 03/M01 A3033 RMK A01 T00331014  RH  071%=      5-min Rain = 0
KOD1 070644Z 01012KT 03/M01 A3033 RMK A01 T00331014  RH  071%=      5-min Rain = 0
KOD1 070645Z 01011KT 03/M01 A3033 RMK A01 T00331014  RH  071%=      5-min Rain = 0
KOD1 070646Z 02012KT 03/M01 A3033 RMK A01 T00331014  RH  071%=      5-min Rain = 0
KOD1 070647Z 01012KT 03/M01 A3033 RMK A01 T00331014  RH  072%=      5-min Rain = 0
KOD1 070648Z 01013KT 03/M01 A3034 RMK A01 T00331013  RH  072%=      5-min Rain = 0
KOD1 070649Z 01012KT 03/M01 A3033 RMK A01 T00321013  RH  072%=      5-min Rain = 0
KOD1 070650Z 01012KT 03/M01 A3033 RMK A01 T00321013  RH  072%=      5-min Rain = 0
KOD1 070651Z 01013KT 03/M01 A3033 RMK A01 T00321013  RH  072%=      5-min Rain = 0
KOD1 070652Z 01011KT 03/M01 A3034 RMK A01 T00321013  RH  072%=      5-min Rain = 0
KOD1 070653Z 01011KT 03/M01 A3034 RMK A01 T00321013  RH  073%=      5-min Rain = 0
KOD1 070654Z 01009KT 03/M01 A3034 RMK A01 T00321012  RH  073%=      5-min Rain = 0
KOD1 070655Z 01010KT 03/M01 A3034 RMK A01 T00321012  RH  073%=      5-min Rain = 0
KOD1 070656Z 01009KT 03/M01 A3034 RMK A01 T00321012  RH  073%=      5-min Rain = 0
KOD1 070657Z 01011KT 03/M01 A3034 RMK A01 T00321012  RH  073%=      5-min Rain = 0
KOD1 070658Z 01012KT 03/M01 A3034 RMK A01 T00321012  RH  073%=      5-min Rain = 0
KOD1 070659Z 01012KT 03/M01 A3034 RMK A01 T00321012  RH  073%=      5-min Rain = 0
KOD1 070700Z 01012KT 03/M01 A3034 RMK A01 T00321012  RH  073%=      5-min Rain = 0
KOD1 070701Z 00011KT 03/M01 A3034 RMK A01 T00321012  RH  073%=      5-min Rain = 0
KOD1 070702Z 01011KT 03/M01 A3034 RMK A01 T00321011  RH  073%=      5-min Rain = 0
KOD1 070703Z 01011KT 03/M01 A3034 RMK A01 T00321011  RH  073%=      5-min Rain = 0
KOD1 070704Z 01011KT 03/M01 A3034 RMK A01 T00321011  RH  074%=      5-min Rain = 0
KOD1 070705Z 00010KT 03/M01 A3034 RMK A01 T00321010  RH  074%=      5-min Rain = 0
KOD1 070706Z 01010KT 03/M01 A3034 RMK A01 T00321010  RH  074%=      5-min Rain = 0
KOD1 070707Z 01012KT 03/M01 A3034 RMK A01 T00321010  RH  074%=      5-min Rain = 0
KOD1 070708Z 00008KT 03/M01 A3034 RMK A01 T00321010  RH  074%=      5-min Rain = 0
KOD1 070709Z 00010KT 03/M01 A3034 RMK A01 T00321010  RH  074%=      5-min Rain = 0
KOD1 070710Z 01007KT 03/M01 A3034 RMK A01 T00321010  RH  074%=      5-min Rain = 0
KOD1 070711Z 36010KT 03/M01 A3034 RMK A01 T00321010  RH  074%=      5-min Rain = 0
KOD1 070712Z 01011KT 03/M01 A3034 RMK A01 T00321010  RH  074%=      5-min Rain = 0
KOD1 070713Z 01009KT 03/M01 A3034 RMK A01 T00321010  RH  074%=      5-min Rain = 0
KOD1 070714Z 00010KT 03/M01 A3034 RMK A01 T00321010  RH  074%=      5-min Rain = 0
KOD1 070715Z 01009KT 03/M01 A3034 RMK A01 T00321010  RH  074%=      5-min Rain = 0
KOD1 070716Z 00009KT 03/M01 A3034 RMK A01 T00311009  RH  075%=      5-min Rain = 0
KOD1 070717Z 01009KT 03/M01 A3034 RMK A01 T00311009  RH  075%=      5-min Rain = 0
KOD1 070718Z 01010KT 03/M01 A3034 RMK A01 T00311009  RH  075%=      5-min Rain = 0
KOD1 070719Z 01010KT 03/M01 A3034 RMK A01 T00311009  RH  075%=      5-min Rain = 0
KOD1 070720Z 00010KT 03/M01 A3034 RMK A01 T00311009  RH  075%=      5-min Rain = 0
KOD1 070721Z 00008KT 03/M01 A3035 RMK A01 T00311009  RH  075%=      5-min Rain = 0
KOD1 070722Z 00010KT 03/M01 A3034 RMK A01 T00311009  RH  075%=      5-min Rain = 0
KOD1 070723Z 01012KT 03/M01 A3034 RMK A01 T00311009  RH  075%=      5-min Rain = 0
KOD1 070724Z 01010KT 03/M01 A3034 RMK A01 T00311008  RH  075%=      5-min Rain = 0
KOD1 070725Z 00009KT 03/M01 A3035 RMK A01 T00311008  RH  076%=      5-min Rain = 0
KOD1 070726Z 01010KT 03/M01 A3035 RMK A01 T00311008  RH  076%=      5-min Rain = 0
KOD1 070727Z 01011KT 03/M01 A3035 RMK A01 T00311008  RH  076%=      5-min Rain = 0
KOD1 070728Z 01010KT 03/M01 A3035 RMK A01 T00311007  RH  076%=      5-min Rain = 0
KOD1 070729Z 01010KT 03/M01 A3035 RMK A01 T00311007  RH  076%=      5-min Rain = 0
KOD1 070730Z 01011KT 03/M01 A3035 RMK A01 T00311007  RH  076%=      5-min Rain = 0
KOD1 070731Z 01010KT 03/M01 A3035 RMK A01 T00311007  RH  076%=      5-min Rain = 0
KOD1 070732Z 01011KT 03/M01 A3035 RMK A01 T00301007  RH  076%=      5-min Rain = 0
KOD1 070733Z 01010KT 03/M01 A3035 RMK A01 T00301007  RH  077%=      5-min Rain = 0
KOD1 070734Z 01010KT 03/M01 A3035 RMK A01 T00301006  RH  077%=      5-min Rain = 0
KOD1 070735Z 01011KT 03/M01 A3035 RMK A01 T00301006  RH  077%=      5-min Rain = 0
KOD1 070736Z 01009KT 03/M01 A3035 RMK A01 T00301006  RH  077%=      5-min Rain = 0
KOD1 070737Z 01009KT 03/M01 A3035 RMK A01 T00301006  RH  077%=      5-min Rain = 0
KOD1 070738Z 01007KT 03/M01 A3035 RMK A01 T00301006  RH  077%=      5-min Rain = 0
KOD1 070739Z 01009KT 03/M01 A3035 RMK A01 T00311006  RH  077%=      5-min Rain = 0
KOD1 070740Z 01009KT 03/M01 A3035 RMK A01 T00301006  RH  077%=      5-min Rain = 0
KOD1 070741Z 01009KT 03/M01 A3035 RMK A01 T00301006  RH  077%=      5-min Rain = 0
KOD1 070742Z 01011KT 03/M01 A3035 RMK A01 T00301006  RH  077%=      5-min Rain = 0
KOD1 070743Z 01010KT 03/M01 A3035 RMK A01 T00301006  RH  077%=      5-min Rain = 0
KOD1 070744Z 01011KT 03/M01 A3035 RMK A01 T00301006  RH  077%=      5-min Rain = 0
KOD1 070745Z 01010KT 03/M01 A3035 RMK A01 T00301005  RH  078%=      5-min Rain = 0
KOD1 070746Z 01010KT 03/M01 A3035 RMK A01 T00301005  RH  078%=      5-min Rain = 0
KOD1 070747Z 00009KT 03/M01 A3035 RMK A01 T00291005  RH  078%=      5-min Rain = 0
KOD1 070748Z 00009KT 03/M01 A3035 RMK A01 T00291005  RH  078%=      5-min Rain = 0
KOD1 070749Z 01010KT 03/M01 A3034 RMK A01 T00291005  RH  078%=      5-min Rain = 0
KOD1 070750Z 00009KT 03/M01 A3034 RMK A01 T00291005  RH  078%=      5-min Rain = 0
KOD1 070751Z 01009KT 03/M01 A3035 RMK A01 T00291005  RH  079%=      5-min Rain = 0
KOD1 070752Z 01011KT 03/M01 A3035 RMK A01 T00291005  RH  079%=      5-min Rain = 0
KOD1 070753Z 00009KT 03/M00 A3035 RMK A01 T00291004  RH  079%=      5-min Rain = 0
KOD1 070754Z 01010KT 03/M00 A3035 RMK A01 T00291004  RH  079%=      5-min Rain = 0
KOD1 070755Z 01009KT 03/M00 A3035 RMK A01 T00291004  RH  079%=      5-min Rain = 0
KOD1 070756Z 01009KT 03/M00 A3035 RMK A01 T00291004  RH  079%=      5-min Rain = 0
KOD1 070757Z 01008KT 03/M00 A3035 RMK A01 T00291004  RH  079%=      5-min Rain = 0
KOD1 070758Z 01009KT 03/M00 A3035 RMK A01 T00291004  RH  079%=      5-min Rain = 0
KOD1 070759Z 01010KT 03/M00 A3035 RMK A01 T00291004  RH  079%=      5-min Rain = 0
KOD1 070800Z 01009KT 03/M00 A3035 RMK A01 T00281004  RH  079%=      5-min Rain = 0
KOD1 070801Z 01008KT 03/M00 A3035 RMK A01 T00281003  RH  079%=      5-min Rain = 0
KOD1 070802Z 01010KT 03/M00 A3035 RMK A01 T00281004  RH  079%=      5-min Rain = 0
KOD1 070803Z 01010KT 03/M00 A3035 RMK A01 T00281003  RH  080%=      5-min Rain = 0
KOD1 070804Z 01008KT 03/M00 A3035 RMK A01 T00281003  RH  080%=      5-min Rain = 0
KOD1 070805Z 01007KT 03/M00 A3035 RMK A01 T00281003  RH  080%=      5-min Rain = 0
KOD1 070806Z 01008KT 03/M00 A3035 RMK A01 T00281003  RH  080%=      5-min Rain = 0
KOD1 070807Z 01010KT 03/M00 A3035 RMK A01 T00281003  RH  080%=      5-min Rain = 0
KOD1 070808Z 01010KT 03/M00 A3035 RMK A01 T00281003  RH  080%=      5-min Rain = 0
KOD1 070809Z 01010KT 03/M00 A3035 RMK A01 T00281003  RH  080%=      5-min Rain = 0
KOD1 070810Z 01010KT 03/M00 A3035 RMK A01 T00281003  RH  080%=      5-min Rain = 0
KOD1 070811Z 02009KT 03/M00 A3035 RMK A01 T00281003  RH  081%=      5-min Rain = 0
KOD1 070812Z 02009KT 03/M00 A3035 RMK A01 T00271003  RH  081%=      5-min Rain = 0
KOD1 070813Z 01010KT 03/M00 A3035 RMK A01 T00271002  RH  081%=      5-min Rain = 0
KOD1 070814Z 01011KT 03/M00 A3035 RMK A01 T00271002  RH  081%=      5-min Rain = 0
KOD1 070815Z 01011KT 03/M00 A3035 RMK A01 T00271002  RH  081%=      5-min Rain = 0
KOD1 070816Z 01010KT 03/M00 A3035 RMK A01 T00271002  RH  081%=      5-min Rain = 0
KOD1 070817Z 01010KT 03/M00 A3035 RMK A01 T00271002  RH  081%=      5-min Rain = 0
KOD1 070818Z 01008KT 03/M00 A3035 RMK A01 T00271002  RH  081%=      5-min Rain = 0
KOD1 070819Z 01008KT 03/M00 A3035 RMK A01 T00271002  RH  081%=      5-min Rain = 0
KOD1 070820Z 00010KT 03/M00 A3035 RMK A01 T00271002  RH  081%=      5-min Rain = 0
KOD1 070821Z 01010KT 03/M00 A3035 RMK A01 T00271002  RH  081%=      5-min Rain = 0
KOD1 070822Z 02009KT 03/M00 A3035 RMK A01 T00271002  RH  081%=      5-min Rain = 0
KOD1 070823Z 01009KT 03/M00 A3035 RMK A01 T00271002  RH  081%=      5-min Rain = 0
KOD1 070824Z 01008KT 03/M00 A3035 RMK A01 T00271002  RH  081%=      5-min Rain = 0
KOD1 070825Z 00010KT 03/M00 A3035 RMK A01 T00271002  RH  081%=      5-min Rain = 0
KOD1 070826Z 01009KT 03/M00 A3035 RMK A01 T00271002  RH  081%=      5-min Rain = 0
KOD1 070827Z 00008KT 03/M00 A3035 RMK A01 T00271002  RH  082%=      5-min Rain = 0
KOD1 070828Z 01010KT 03/M00 A3035 RMK A01 T00271002  RH  082%=      5-min Rain = 0
KOD1 070829Z 36009KT 03/M00 A3035 RMK A01 T00261002  RH  082%=      5-min Rain = 0
KOD1 070830Z 01009KT 03/M00 A3035 RMK A01 T00261002  RH  082%=      5-min Rain = 0
KOD1 070831Z 00009KT 03/M00 A3035 RMK A01 T00261001  RH  082%=      5-min Rain = 0
KOD1 070832Z 00009KT 03/M00 A3035 RMK A01 T00261001  RH  082%=      5-min Rain = 0
KOD1 070833Z 00009KT 03/M00 A3035 RMK A01 T00261001  RH  082%=      5-min Rain = 0
KOD1 070834Z 01008KT 03/M00 A3036 RMK A01 T00261001  RH  082%=      5-min Rain = 0
KOD1 070835Z 01010KT 03/M00 A3036 RMK A01 T00261001  RH  082%=      5-min Rain = 0
KOD1 070836Z 01010KT 03/M00 A3036 RMK A01 T00261001  RH  082%=      5-min Rain = 0
KOD1 070837Z 01012KT 03/M00 A3036 RMK A01 T00261001  RH  082%=      5-min Rain = 0
KOD1 070838Z 01010KT 03/M00 A3036 RMK A01 T00261001  RH  082%=      5-min Rain = 0
KOD1 070839Z 01011KT 03/M00 A3036 RMK A01 T00261001  RH  082%=      5-min Rain = 0
KOD1 070840Z 01011KT 03/M00 A3036 RMK A01 T00261001  RH  082%=      5-min Rain = 0
KOD1 070841Z 01009KT 03/M00 A3036 RMK A01 T00261001  RH  083%=      5-min Rain = 0
KOD1 070842Z 01008KT 03/M00 A3035 RMK A01 T00261001  RH  083%=      5-min Rain = 0
KOD1 070843Z 02010KT 03/M00 A3035 RMK A01 T00261001  RH  083%=      5-min Rain = 0
KOD1 070844Z 01010KT 03/M00 A3035 RMK A01 T00261001  RH  082%=      5-min Rain = 0
KOD1 070845Z 01010KT 03/M00 A3035 RMK A01 T00261001  RH  083%=      5-min Rain = 0
KOD1 070846Z 01011KT 03/M00 A3035 RMK A01 T00261001  RH  083%=      5-min Rain = 0
KOD1 070847Z 01010KT 03/M00 A3035 RMK A01 T00261001  RH  083%=      5-min Rain = 0
KOD1 070848Z 02008KT 03/M00 A3035 RMK A01 T00261001  RH  083%=      5-min Rain = 0
KOD1 070849Z 02009KT 03/M00 A3035 RMK A01 T00261001  RH  083%=      5-min Rain = 0
KOD1 070850Z 02010KT 03/M00 A3035 RMK A01 T00261001  RH  083%=      5-min Rain = 0
KOD1 070851Z 01009KT 03/M00 A3035 RMK A01 T00261001  RH  083%=      5-min Rain = 0
KOD1 070852Z 01008KT 03/M00 A3035 RMK A01 T00261001  RH  083%=      5-min Rain = 0
KOD1 070853Z 00009KT 03/M00 A3035 RMK A01 T00261001  RH  083%=      5-min Rain = 0
KOD1 070854Z 00011KT 03/M00 A3035 RMK A01 T00261001  RH  083%=      5-min Rain = 0
KOD1 070855Z 36011KT 03/M00 A3035 RMK A01 T00261001  RH  083%=      5-min Rain = 0
KOD1 070856Z 01011KT 03/M00 A3035 RMK A01 T00251001  RH  083%=      5-min Rain = 0
KOD1 070857Z 36009KT 03/M00 A3035 RMK A01 T00251001  RH  083%=      5-min Rain = 0
KOD1 070858Z 00010KT 03/M00 A3035 RMK A01 T00251001  RH  083%=      5-min Rain = 0
KOD1 070859Z 00009KT 03/M00 A3035 RMK A01 T00251001  RH  083%=      5-min Rain = 0
KOD1 070900Z 36009KT 03/M00 A3035 RMK A01 T00251001  RH  083%=      5-min Rain = 0
KOD1 070901Z 00010KT 03/00 A3035 RMK A01 T002500-0  RH  083%=      5-min Rain = 0
KOD1 070902Z 00011KT 03/00 A3035 RMK A01 T002500-0  RH  083%=      5-min Rain = 0
KOD1 070903Z 00010KT 03/00 A3035 RMK A01 T002500-0  RH  083%=      5-min Rain = 0
KOD1 070904Z 01010KT 03/00 A3035 RMK A01 T002500-0  RH  083%=      5-min Rain = 0
KOD1 070905Z 01009KT 03/00 A3035 RMK A01 T002500-0  RH  083%=      5-min Rain = 0
KOD1 070906Z 00009KT 03/00 A3036 RMK A01 T002500-0  RH  083%=      5-min Rain = 0
KOD1 070907Z 00010KT 03/00 A3036 RMK A01 T002500-0  RH  083%=      5-min Rain = 0
KOD1 070908Z 00011KT 03/00 A3036 RMK A01 T002500-0  RH  083%=      5-min Rain = 0
KOD1 070909Z 01010KT 03/00 A3036 RMK A01 T002500-0  RH  083%=      5-min Rain = 0
KOD1 070910Z 01008KT 03/00 A3036 RMK A01 T002500-0  RH  084%=      5-min Rain = 0
KOD1 070911Z 00008KT 03/00 A3036 RMK A01 T00250000  RH  084%=      5-min Rain = 0
KOD1 070912Z 01008KT 03/00 A3036 RMK A01 T00250000  RH  084%=      5-min Rain = 0
KOD1 070913Z 01010KT 03/00 A3036 RMK A01 T00250000  RH  084%=      5-min Rain = 0
KOD1 070914Z 01011KT 03/00 A3036 RMK A01 T00250000  RH  084%=      5-min Rain = 0
KOD1 070915Z 01011KT 03/00 A3036 RMK A01 T00250000  RH  084%=      5-min Rain = 0
KOD1 070916Z 01011KT 03/00 A3036 RMK A01 T00250000  RH  084%=      5-min Rain = 0
KOD1 070917Z 01011KT 02/00 A3036 RMK A01 T00240000  RH  084%=      5-min Rain = 0
KOD1 070918Z 01010KT 02/00 A3036 RMK A01 T00240000  RH  084%=      5-min Rain = 0
KOD1 070919Z 00009KT 02/00 A3036 RMK A01 T00240000  RH  084%=      5-min Rain = 0
KOD1 070920Z 01011KT 02/00 A3036 RMK A01 T00240000  RH  084%=      5-min Rain = 0
KOD1 070921Z 01010KT 02/00 A3036 RMK A01 T00240001  RH  084%=      5-min Rain = 0
KOD1 070922Z 01009KT 02/00 A3036 RMK A01 T00240001  RH  085%=      5-min Rain = 0
KOD1 070923Z 01011KT 02/00 A3036 RMK A01 T00240001  RH  084%=      5-min Rain = 0
KOD1 070924Z 01011KT 02/00 A3036 RMK A01 T00240001  RH  085%=      5-min Rain = 0
KOD1 070925Z 01011KT 02/00 A3036 RMK A01 T00240001  RH  085%=      5-min Rain = 0
KOD1 070926Z 01010KT 02/00 A3036 RMK A01 T00240001  RH  085%=      5-min Rain = 0
KOD1 070927Z 00011KT 02/00 A3036 RMK A01 T00240001  RH  085%=      5-min Rain = 0
KOD1 070928Z 01010KT 02/00 A3036 RMK A01 T00230001  RH  085%=      5-min Rain = 0
KOD1 070929Z 00012KT 02/00 A3035 RMK A01 T00230001  RH  085%=      5-min Rain = 0
KOD1 070930Z 00010KT 02/00 A3035 RMK A01 T00230001  RH  085%=      5-min Rain = 0
KOD1 070931Z 00011KT 02/00 A3035 RMK A01 T00230001  RH  086%=      5-min Rain = 0
KOD1 070932Z 01010KT 02/00 A3035 RMK A01 T00230001  RH  086%=      5-min Rain = 0
KOD1 070933Z 00009KT 02/00 A3035 RMK A01 T00230001  RH  086%=      5-min Rain = 0
KOD1 070934Z 01007KT 02/00 A3035 RMK A01 T00230001  RH  086%=      5-min Rain = 0
KOD1 070935Z 01008KT 02/00 A3036 RMK A01 T00230001  RH  086%=      5-min Rain = 0
KOD1 070936Z 01009KT 02/00 A3036 RMK A01 T00230001  RH  085%=      5-min Rain = 0
KOD1 070937Z 01007KT 02/00 A3036 RMK A01 T00230001  RH  085%=      5-min Rain = 0
KOD1 070938Z 01008KT 02/00 A3035 RMK A01 T00230001  RH  085%=      5-min Rain = 0
KOD1 070939Z 02009KT 02/00 A3035 RMK A01 T00230001  RH  085%=      5-min Rain = 0
KOD1 070940Z 02008KT 02/00 A3035 RMK A01 T00230001  RH  086%=      5-min Rain = 0
KOD1 070941Z 02008KT 02/00 A3036 RMK A01 T00230002  RH  086%=      5-min Rain = 0
KOD1 070942Z 02009KT 02/00 A3036 RMK A01 T00230002  RH  086%=      5-min Rain = 0
KOD1 070943Z 02009KT 02/00 A3036 RMK A01 T00230001  RH  086%=      5-min Rain = 0
KOD1 070944Z 02009KT 02/00 A3035 RMK A01 T00230002  RH  086%=      5-min Rain = 0
KOD1 070945Z 02010KT 02/00 A3035 RMK A01 T00230001  RH  086%=      5-min Rain = 0
KOD1 070946Z 02010KT 02/00 A3035 RMK A01 T00230001  RH  086%=      5-min Rain = 0
KOD1 070947Z 02009KT 02/00 A3035 RMK A01 T00230001  RH  086%=      5-min Rain = 0
KOD1 070948Z 01009KT 02/00 A3035 RMK A01 T00220001  RH  086%=      5-min Rain = 0
KOD1 070949Z 01007KT 02/00 A3035 RMK A01 T00220001  RH  086%=      5-min Rain = 0
KOD1 070950Z 01008KT 02/00 A3035 RMK A01 T00220002  RH  086%=      5-min Rain = 0
KOD1 070951Z 01008KT 02/00 A3035 RMK A01 T00220002  RH  086%=      5-min Rain = 0
KOD1 070952Z 02008KT 02/00 A3035 RMK A01 T00220002  RH  086%=      5-min Rain = 0
KOD1 070953Z 02010KT 02/00 A3035 RMK A01 T00220002  RH  086%=      5-min Rain = 0
KOD1 070954Z 01009KT 02/00 A3035 RMK A01 T00220002  RH  086%=      5-min Rain = 0
KOD1 070955Z 02008KT 02/00 A3035 RMK A01 T00220002  RH  086%=      5-min Rain = 0
KOD1 070956Z 02010KT 02/00 A3035 RMK A01 T00220002  RH  087%=      5-min Rain = 0
KOD1 070957Z 02009KT 02/00 A3035 RMK A01 T00220002  RH  087%=      5-min Rain = 0
KOD1 070958Z 02006KT 02/00 A3035 RMK A01 T00220002  RH  087%=      5-min Rain = 0
KOD1 070959Z 02008KT 02/00 A3035 RMK A01 T00220002  RH  087%=      5-min Rain = 0
KOD1 071000Z 02009KT 02/00 A3035 RMK A01 T00220002  RH  087%=      5-min Rain = 0
KOD1 071001Z 02010KT 02/00 A3035 RMK A01 T00210002  RH  087%=      5-min Rain = 0
KOD1 071002Z 02009KT 02/00 A3035 RMK A01 T00210002  RH  087%=      5-min Rain = 0
KOD1 071003Z 01008KT 02/00 A3035 RMK A01 T00210002  RH  087%=      5-min Rain = 0
KOD1 071004Z 02009KT 02/00 A3035 RMK A01 T00210002  RH  087%=      5-min Rain = 0
KOD1 071005Z 02009KT 02/00 A3035 RMK A01 T00210002  RH  087%=      5-min Rain = 0
KOD1 071006Z 02008KT 02/00 A3035 RMK A01 T00210002  RH  087%=      5-min Rain = 0
KOD1 071007Z 02008KT 02/00 A3035 RMK A01 T00210002  RH  087%=      5-min Rain = 0
KOD1 071008Z 01009KT 02/00 A3035 RMK A01 T00210002  RH  087%=      5-min Rain = 0
KOD1 071009Z 01009KT 02/00 A3035 RMK A01 T00210002  RH  088%=      5-min Rain = 0
KOD1 071010Z 01008KT 02/00 A3035 RMK A01 T00210002  RH  088%=      5-min Rain = 0
KOD1 071011Z 02009KT 02/00 A3035 RMK A01 T00210002  RH  088%=      5-min Rain = 0
KOD1 071012Z 02007KT 02/00 A3035 RMK A01 T00210003  RH  088%=      5-min Rain = 0
KOD1 071013Z 02009KT 02/00 A3035 RMK A01 T00210003  RH  088%=      5-min Rain = 0
KOD1 071014Z 02011KT 02/00 A3035 RMK A01 T00210003  RH  088%=      5-min Rain = 0
KOD1 071015Z 02011KT 02/00 A3035 RMK A01 T00200003  RH  088%=      5-min Rain = 0
KOD1 071016Z 02011KT 02/00 A3035 RMK A01 T00200003  RH  089%=      5-min Rain = 0
KOD1 071017Z 02010KT 02/00 A3035 RMK A01 T00200003  RH  089%=      5-min Rain = 0
KOD1 071018Z 02009KT 02/00 A3035 RMK A01 T00200004  RH  089%=      5-min Rain = 0
KOD1 071019Z 01010KT 02/00 A3035 RMK A01 T00190004  RH  089%=      5-min Rain = 0
KOD1 071020Z 01010KT 02/00 A3036 RMK A01 T00190004  RH  090%=      5-min Rain = 0
KOD1 071021Z 01010KT 02/00 A3036 RMK A01 T00190004  RH  090%=      5-min Rain = 0
KOD1 071022Z 02009KT 02/00 A3036 RMK A01 T00190004  RH  090%=      5-min Rain = 0
KOD1 071023Z 01007KT 02/01 A3036 RMK A01 T00190005  RH  090%=      5-min Rain = 0
KOD1 071024Z 01007KT 02/01 A3036 RMK A01 T00190005  RH  090%=      5-min Rain = 0
KOD1 071025Z 02006KT 02/01 A3036 RMK A01 T00190005  RH  091%=      5-min Rain = 0
KOD1 071026Z 02008KT 02/01 A3036 RMK A01 T00190005  RH  091%=      5-min Rain = 0
KOD1 071027Z 01008KT 02/01 A3036 RMK A01 T00190005  RH  091%=      5-min Rain = 0
KOD1 071028Z 01006KT 02/01 A3036 RMK A01 T00190005  RH  091%=      5-min Rain = 0
KOD1 071029Z 01006KT 02/01 A3036 RMK A01 T00190006  RH  091%=      5-min Rain = 0
KOD1 071030Z 01006KT 02/01 A3036 RMK A01 T00190006  RH  091%=      5-min Rain = 0
KOD1 071031Z 01006KT 02/01 A3036 RMK A01 T00180006  RH  091%=      5-min Rain = 0
KOD1 071032Z 00009KT 02/01 A3036 RMK A01 T00180006  RH  092%=      5-min Rain = 0
KOD1 071033Z 00009KT 02/01 A3036 RMK A01 T00180006  RH  092%=      5-min Rain = 0
KOD1 071034Z 01008KT 02/01 A3036 RMK A01 T00180006  RH  092%=      5-min Rain = 0
KOD1 071035Z 01007KT 02/01 A3036 RMK A01 T00180006  RH  092%=      5-min Rain = 0
KOD1 071036Z 01009KT 02/01 A3036 RMK A01 T00180007  RH  092%=      5-min Rain = 0
KOD1 071037Z 01009KT 02/01 A3036 RMK A01 T00180006  RH  092%=      5-min Rain = 0
KOD1 071038Z 01009KT 02/01 A3036 RMK A01 T00170006  RH  092%=      5-min Rain = 0
KOD1 071039Z 01009KT 02/01 A3036 RMK A01 T00170006  RH  092%=      5-min Rain = 0
KOD1 071040Z 01009KT 02/01 A3036 RMK A01 T00170006  RH  093%=      5-min Rain = 0
KOD1 071041Z 01008KT 02/01 A3036 RMK A01 T00170007  RH  093%=      5-min Rain = 0
KOD1 071042Z 01009KT 02/01 A3036 RMK A01 T00170007  RH  093%=      5-min Rain = 0
KOD1 071043Z 01009KT 02/01 A3036 RMK A01 T00170007  RH  093%=      5-min Rain = 0
KOD1 071044Z 01010KT 02/01 A3036 RMK A01 T00170007  RH  093%=      5-min Rain = 0
KOD1 071045Z 02010KT 02/01 A3035 RMK A01 T00160007  RH  094%=      5-min Rain = 0
KOD1 071046Z 01010KT 02/01 A3035 RMK A01 T00160007  RH  094%=      5-min Rain = 0
KOD1 071047Z 01010KT 02/01 A3035 RMK A01 T00160007  RH  094%=      5-min Rain = 0
KOD1 071048Z 02008KT 02/01 A3035 RMK A01 T00160007  RH  094%=      5-min Rain = 0
KOD1 071049Z 01009KT 02/01 A3036 RMK A01 T00160007  RH  094%=      5-min Rain = 0
KOD1 071050Z 01009KT 02/01 A3036 RMK A01 T00160007  RH  094%=      5-min Rain = 0
KOD1 071051Z 01008KT 02/01 A3035 RMK A01 T00150007  RH  094%=      5-min Rain = 0
KOD1 071052Z 01008KT 02/01 A3035 RMK A01 T00150008  RH  095%=      5-min Rain = 0
KOD1 071053Z 01008KT 02/01 A3035 RMK A01 T00150008  RH  095%=      5-min Rain = 0
KOD1 071054Z 01010KT 02/01 A3035 RMK A01 T00150008  RH  095%=      5-min Rain = 0
KOD1 071055Z 01008KT 02/01 A3035 RMK A01 T00150008  RH  095%=      5-min Rain = 0
KOD1 071056Z 01010KT 02/01 A3035 RMK A01 T00150008  RH  095%=      5-min Rain = 0
KOD1 071057Z 00010KT 02/01 A3036 RMK A01 T00150008  RH  095%=      5-min Rain = 0
KOD1 071058Z 00009KT 02/01 A3036 RMK A01 T00150008  RH  095%=      5-min Rain = 0
KOD1 071059Z 01010KT 02/01 A3036 RMK A01 T00150008  RH  095%=      5-min Rain = 0
KOD1 071100Z 01010KT 01/01 A3036 RMK A01 T00140008  RH  095%=      5-min Rain = 0
KOD1 071101Z 01010KT 01/01 A3036 RMK A01 T00140007  RH  095%=      5-min Rain = 0
KOD1 071102Z 01009KT 01/01 A3036 RMK A01 T00140007  RH  095%=      5-min Rain = 0
KOD1 071103Z 01007KT 01/01 A3036 RMK A01 T00140008  RH  096%=      5-min Rain = 0
KOD1 071104Z 01009KT 01/01 A3036 RMK A01 T00140008  RH  096%=      5-min Rain = 0
KOD1 071105Z 01010KT 01/01 A3037 RMK A01 T00140008  RH  096%=      5-min Rain = 0
KOD1 071106Z 01010KT 01/01 A3037 RMK A01 T00140008  RH  096%=      5-min Rain = 0
KOD1 071107Z 00009KT 01/01 A3037 RMK A01 T00140008  RH  096%=      5-min Rain = 0
KOD1 071108Z 01009KT 01/01 A3036 RMK A01 T00140008  RH  096%=      5-min Rain = 0
KOD1 071109Z 01009KT 01/01 A3036 RMK A01 T00140008  RH  096%=      5-min Rain = 0
KOD1 071110Z 01008KT 01/01 A3037 RMK A01 T00140008  RH  096%=      5-min Rain = 0
KOD1 071111Z 01008KT 01/01 A3037 RMK A01 T00140008  RH  096%=      5-min Rain = 0
KOD1 071112Z 01008KT 01/01 A3037 RMK A01 T00140008  RH  096%=      5-min Rain = 0
KOD1 071113Z 00008KT 01/01 A3037 RMK A01 T00140008  RH  096%=      5-min Rain = 0
KOD1 071114Z 00007KT 01/01 A3037 RMK A01 T00130008  RH  096%=      5-min Rain = 0
KOD1 071115Z 00008KT 01/01 A3038 RMK A01 T00130008  RH  096%=      5-min Rain = 0
KOD1 071116Z 01009KT 01/01 A3038 RMK A01 T00130008  RH  096%=      5-min Rain = 0
KOD1 071117Z 01010KT 01/01 A3037 RMK A01 T00130007  RH  096%=      5-min Rain = 0
KOD1 071118Z 01010KT 01/01 A3037 RMK A01 T00120007  RH  096%=      5-min Rain = 0
KOD1 071119Z 01009KT 01/01 A3037 RMK A01 T00120007  RH  096%=      5-min Rain = 0
KOD1 071120Z 02010KT 01/01 A3037 RMK A01 T00120007  RH  096%=      5-min Rain = 0
KOD1 071121Z 01009KT 01/01 A3037 RMK A01 T00120007  RH  096%=      5-min Rain = 0
KOD1 071122Z 01010KT 01/01 A3037 RMK A01 T00120007  RH  096%=      5-min Rain = 0
KOD1 071123Z 01008KT 01/01 A3037 RMK A01 T00120007  RH  097%=      5-min Rain = 0
KOD1 071124Z 01008KT 01/01 A3038 RMK A01 T00120007  RH  097%=      5-min Rain = 0
KOD1 071125Z 01009KT 01/01 A3038 RMK A01 T00120007  RH  097%=      5-min Rain = 0
KOD1 071126Z 02008KT 01/01 A3038 RMK A01 T00110006  RH  097%=      5-min Rain = 0
KOD1 071127Z 01008KT 01/01 A3038 RMK A01 T00110007  RH  097%=      5-min Rain = 0
KOD1 071128Z 01008KT 01/01 A3038 RMK A01 T00110007  RH  097%=      5-min Rain = 0
KOD1 071129Z 01007KT 01/01 A3038 RMK A01 T00110007  RH  097%=      5-min Rain = 0
KOD1 071130Z 01007KT 01/01 A3038 RMK A01 T00110007  RH  097%=      5-min Rain = 0
KOD1 071131Z 01006KT 01/01 A3038 RMK A01 T00110007  RH  097%=      5-min Rain = 0
KOD1 071132Z 01007KT 01/01 A3038 RMK A01 T00120007  RH  097%=      5-min Rain = 0
KOD1 071133Z 01007KT 01/01 A3038 RMK A01 T00120007  RH  097%=      5-min Rain = 0
KOD1 071134Z 01008KT 01/01 A3038 RMK A01 T00120007  RH  097%=      5-min Rain = 0
KOD1 071135Z 01007KT 01/01 A3038 RMK A01 T00110007  RH  097%=      5-min Rain = 0
KOD1 071136Z 01006KT 01/01 A3038 RMK A01 T00110007  RH  097%=      5-min Rain = 0
KOD1 071137Z 01007KT 01/01 A3038 RMK A01 T00120007  RH  097%=      5-min Rain = 0
KOD1 071138Z 01007KT 01/01 A3038 RMK A01 T00110007  RH  097%=      5-min Rain = 0
KOD1 071139Z 01008KT 01/01 A3038 RMK A01 T00120007  RH  097%=      5-min Rain = 0
KOD1 071140Z 02006KT 01/01 A3038 RMK A01 T00120007  RH  097%=      5-min Rain = 0
KOD1 071141Z 01008KT 01/01 A3038 RMK A01 T00110007  RH  097%=      5-min Rain = 0
KOD1 071142Z 01009KT 01/01 A3038 RMK A01 T00110007  RH  097%=      5-min Rain = 0
KOD1 071143Z 01010KT 01/01 A3038 RMK A01 T00110007  RH  097%=      5-min Rain = 0
KOD1 071144Z 01009KT 01/01 A3038 RMK A01 T00110006  RH  097%=      5-min Rain = 0
KOD1 071145Z 02008KT 01/01 A3038 RMK A01 T00110007  RH  097%=      5-min Rain = 0
KOD1 071146Z 01009KT 01/01 A3038 RMK A01 T00110007  RH  097%=      5-min Rain = 0
KOD1 071147Z 01008KT 01/01 A3038 RMK A01 T00110007  RH  097%=      5-min Rain = 0
KOD1 071148Z 01007KT 01/01 A3038 RMK A01 T00110007  RH  097%=      5-min Rain = 0
KOD1 071149Z 02008KT 01/01 A3038 RMK A01 T00110007  RH  097%=      5-min Rain = 0
KOD1 071150Z 01008KT 01/01 A3038 RMK A01 T00110007  RH  097%=      5-min Rain = 0
KOD1 071151Z 01007KT 01/01 A3038 RMK A01 T00110007  RH  097%=      5-min Rain = 0
KOD1 071152Z 02007KT 01/01 A3038 RMK A01 T00110007  RH  097%=      5-min Rain = 0
KOD1 071153Z 02009KT 01/01 A3038 RMK A01 T00110007  RH  097%=      5-min Rain = 0
KOD1 071154Z 01006KT 01/01 A3038 RMK A01 T00110007  RH  097%=      5-min Rain = 0
KOD1 071155Z 01006KT 01/01 A3038 RMK A01 T00110007  RH  098%=      5-min Rain = 0
KOD1 071156Z 00007KT 01/01 A3038 RMK A01 T00110007  RH  098%=      5-min Rain = 0
KOD1 071157Z 36007KT 01/01 A3038 RMK A01 T00110007  RH  098%=      5-min Rain = 0
KOD1 071158Z 00006KT 01/01 A3038 RMK A01 T00110007  RH  098%=      5-min Rain = 0
KOD1 071159Z 00007KT 01/01 A3038 RMK A01 T00110007  RH  098%=      5-min Rain = 0
KOD1 071200Z 01008KT 01/01 A3038 RMK A01 T00110007  RH  098%=      5-min Rain = 0
KOD1 071201Z 02009KT 01/01 A3038 RMK A01 T00100007  RH  098%=      5-min Rain = 0
KOD1 071202Z 01010KT 01/01 A3038 RMK A01 T00100007  RH  098%=      5-min Rain = 0
KOD1 071203Z 01009KT 01/01 A3037 RMK A01 T00100006  RH  098%=      5-min Rain = 0
KOD1 071204Z 02009KT 01/01 A3037 RMK A01 T00100006  RH  098%=      5-min Rain = 0
KOD1 071205Z 02010KT 01/01 A3037 RMK A01 T00100006  RH  098%=      5-min Rain = 0
KOD1 071206Z 02010KT 01/01 A3037 RMK A01 T00090006  RH  098%=      5-min Rain = 0
KOD1 071207Z 02010KT 01/01 A3037 RMK A01 T00090006  RH  098%=      5-min Rain = 0
KOD1 071208Z 03008KT 01/01 A3037 RMK A01 T00090006  RH  098%=      5-min Rain = 0
KOD1 071209Z 02008KT 01/01 A3037 RMK A01 T00090006  RH  098%=      5-min Rain = 0
KOD1 071210Z 02011KT 01/01 A3037 RMK A01 T00090006  RH  098%=      5-min Rain = 0
KOD1 071211Z 02011KT 01/01 A3037 RMK A01 T00090006  RH  098%=      5-min Rain = 0
KOD1 071212Z 02011KT 01/01 A3037 RMK A01 T00090005  RH  098%=      5-min Rain = 0
KOD1 071213Z 02011KT 01/01 A3037 RMK A01 T00090005  RH  098%=      5-min Rain = 0
KOD1 071214Z 02012KT 01/01 A3037 RMK A01 T00080005  RH  098%=      5-min Rain = 0
KOD1 071215Z 02011KT 01/01 A3037 RMK A01 T00080005  RH  098%=      5-min Rain = 0
KOD1 071216Z 02010KT 01/01 A3037 RMK A01 T00080005  RH  098%=      5-min Rain = 0
KOD1 071217Z 02010KT 01/01 A3037 RMK A01 T00080005  RH  098%=      5-min Rain = 0
KOD1 071218Z 03010KT 01/01 A3037 RMK A01 T00080005  RH  098%=      5-min Rain = 0
KOD1 071219Z 02009KT 01/01 A3037 RMK A01 T00080005  RH  098%=      5-min Rain = 0
KOD1 071220Z 02009KT 01/01 A3037 RMK A01 T00080005  RH  098%=      5-min Rain = 0
KOD1 071221Z 02009KT 01/01 A3037 RMK A01 T00080005  RH  098%=      5-min Rain = 0
KOD1 071222Z 02010KT 01/01 A3037 RMK A01 T00080005  RH  098%=      5-min Rain = 0
KOD1 071223Z 02010KT 01/01 A3037 RMK A01 T00080005  RH  098%=      5-min Rain = 0
KOD1 071224Z 02010KT 01/01 A3037 RMK A01 T00080005  RH  098%=      5-min Rain = 0
KOD1 071225Z 02011KT 01/01 A3037 RMK A01 T00080005  RH  098%=      5-min Rain = 0
KOD1 071226Z 02010KT 01/00 A3037 RMK A01 T00070004  RH  098%=      5-min Rain = 0
KOD1 071227Z 02009KT 01/00 A3037 RMK A01 T00070004  RH  098%=      5-min Rain = 0
KOD1 071228Z 02009KT 01/01 A3037 RMK A01 T00070005  RH  098%=      5-min Rain = 0
KOD1 071229Z 02009KT 01/01 A3037 RMK A01 T00070005  RH  098%=      5-min Rain = 0
KOD1 071230Z 02009KT 01/00 A3037 RMK A01 T00070004  RH  098%=      5-min Rain = 0
KOD1 071231Z 02010KT 01/00 A3038 RMK A01 T00070004  RH  098%=      5-min Rain = 0
KOD1 071232Z 02010KT 01/00 A3038 RMK A01 T00070004  RH  098%=      5-min Rain = 0
KOD1 071233Z 01009KT 01/00 A3038 RMK A01 T00070004  RH  098%=      5-min Rain = 0
KOD1 071234Z 01009KT 01/00 A3038 RMK A01 T00060004  RH  098%=      5-min Rain = 0
KOD1 071235Z 01008KT 01/00 A3038 RMK A01 T00060003  RH  098%=      5-min Rain = 0
KOD1 071236Z 01009KT 01/00 A3038 RMK A01 T00060003  RH  098%=      5-min Rain = 0
KOD1 071237Z 01010KT 01/00 A3038 RMK A01 T00060003  RH  098%=      5-min Rain = 0
KOD1 071238Z 01010KT 01/00 A3038 RMK A01 T00060003  RH  098%=      5-min Rain = 0
KOD1 071239Z 01010KT 01/00 A3038 RMK A01 T00060003  RH  098%=      5-min Rain = 0
KOD1 071240Z 01010KT 01/00 A3038 RMK A01 T00060003  RH  098%=      5-min Rain = 0
KOD1 071241Z 01009KT 01/00 A3038 RMK A01 T00060003  RH  098%=      5-min Rain = 0
KOD1 071242Z 01010KT 01/00 A3038 RMK A01 T00050003  RH  098%=      5-min Rain = 0
KOD1 071243Z 02009KT 01/00 A3038 RMK A01 T00050003  RH  098%=      5-min Rain = 0
KOD1 071244Z 01009KT 01/00 A3038 RMK A01 T00050003  RH  098%=      5-min Rain = 0
KOD1 071245Z 02009KT 01/00 A3038 RMK A01 T00050003  RH  098%=      5-min Rain = 0
KOD1 071246Z 01008KT 01/00 A3038 RMK A01 T00050003  RH  098%=      5-min Rain = 0
KOD1 071247Z 01008KT 01/00 A3038 RMK A01 T00060003  RH  098%=      5-min Rain = 0
KOD1 071248Z 00009KT 01/00 A3038 RMK A01 T00060003  RH  098%=      5-min Rain = 0
KOD1 071249Z 00010KT 01/00 A3038 RMK A01 T00060003  RH  098%=      5-min Rain = 0
KOD1 071250Z 01009KT 01/00 A3038 RMK A01 T00050003  RH  098%=      5-min Rain = 0
KOD1 071251Z 01009KT 01/00 A3038 RMK A01 T00050003  RH  098%=      5-min Rain = 0
KOD1 071252Z 01008KT 01/00 A3038 RMK A01 T00050003  RH  098%=      5-min Rain = 0
KOD1 071253Z 02008KT 01/00 A3037 RMK A01 T00050002  RH  098%=      5-min Rain = 0
KOD1 071254Z 02006KT 01/00 A3037 RMK A01 T00050003  RH  098%=      5-min Rain = 0
KOD1 071255Z 02008KT 01/00 A3037 RMK A01 T00050003  RH  098%=      5-min Rain = 0
KOD1 071256Z 03007KT 01/00 A3037 RMK A01 T00050003  RH  098%=      5-min Rain = 0
KOD1 071257Z 02009KT 01/00 A3037 RMK A01 T00050003  RH  098%=      5-min Rain = 0
KOD1 071258Z 01009KT 01/00 A3037 RMK A01 T00050003  RH  098%=      5-min Rain = 0
KOD1 071259Z 02010KT 01/00 A3037 RMK A01 T00050002  RH  098%=      5-min Rain = 0
KOD1 071300Z 02009KT 01/00 A3037 RMK A01 T00050002  RH  098%=      5-min Rain = 0
KOD1 071301Z 03007KT 01/00 A3036 RMK A01 T00050002  RH  098%=      5-min Rain = 0
KOD1 071302Z 03008KT 01/00 A3036 RMK A01 T00050002  RH  098%=      5-min Rain = 0
KOD1 071303Z 03008KT 01/00 A3036 RMK A01 T00050003  RH  098%=      5-min Rain = 0
KOD1 071304Z 03010KT 01/00 A3036 RMK A01 T00050003  RH  098%=      5-min Rain = 0
KOD1 071305Z 03011KT 01/00 A3036 RMK A01 T00050002  RH  098%=      5-min Rain = 0
KOD1 071306Z 02011KT 00/00 A3036 RMK A01 T00040002  RH  098%=      5-min Rain = 0
KOD1 071307Z 03010KT 00/00 A3037 RMK A01 T00040002  RH  098%=      5-min Rain = 0
KOD1 071308Z 02008KT 00/00 A3037 RMK A01 T00040001  RH  098%=      5-min Rain = 0
KOD1 071309Z 02008KT 00/00 A3037 RMK A01 T00040002  RH  098%=      5-min Rain = 0
KOD1 071310Z 02008KT 00/00 A3037 RMK A01 T00040002  RH  098%=      5-min Rain = 0
KOD1 071311Z 02009KT 00/00 A3037 RMK A01 T00040002  RH  098%=      5-min Rain = 0
KOD1 071312Z 02009KT 00/00 A3037 RMK A01 T00040001  RH  098%=      5-min Rain = 0
KOD1 071313Z 02008KT 00/00 A3037 RMK A01 T00040001  RH  098%=      5-min Rain = 0
KOD1 071314Z 02009KT 00/00 A3037 RMK A01 T00040001  RH  098%=      5-min Rain = 0
KOD1 071315Z 02009KT 00/00 A3037 RMK A01 T00040001  RH  098%=      5-min Rain = 0
KOD1 071316Z 02008KT 00/00 A3037 RMK A01 T00040001  RH  098%=      5-min Rain = 0
KOD1 071317Z 02007KT 00/00 A3037 RMK A01 T00040002  RH  098%=      5-min Rain = 0
KOD1 071318Z 02009KT 00/00 A3037 RMK A01 T00040002  RH  098%=      5-min Rain = 0
KOD1 071319Z 02008KT 00/00 A3037 RMK A01 T00040002  RH  098%=      5-min Rain = 0
KOD1 071320Z 02009KT 00/00 A3037 RMK A01 T00040001  RH  098%=      5-min Rain = 0
KOD1 071321Z 02009KT 00/00 A3037 RMK A01 T00040001  RH  098%=      5-min Rain = 0
KOD1 071322Z 02008KT 00/00 A3037 RMK A01 T00040001  RH  098%=      5-min Rain = 0
KOD1 071323Z 02007KT 00/00 A3037 RMK A01 T00040001  RH  098%=      5-min Rain = 0
KOD1 071324Z 03009KT 00/00 A3037 RMK A01 T00040001  RH  098%=      5-min Rain = 0
KOD1 071325Z 03010KT 00/00 A3037 RMK A01 T00040001  RH  098%=      5-min Rain = 0
KOD1 071326Z 03009KT 00/00 A3036 RMK A01 T00040001  RH  098%=      5-min Rain = 0
KOD1 071327Z 03009KT 00/00 A3036 RMK A01 T00030001  RH  098%=      5-min Rain = 0
KOD1 071328Z 03009KT 00/00 A3036 RMK A01 T00040001  RH  098%=      5-min Rain = 0
KOD1 071329Z 03011KT 00/00 A3036 RMK A01 T00040001  RH  098%=      5-min Rain = 0
KOD1 071330Z 03011KT 00/00 A3036 RMK A01 T00030001  RH  098%=      5-min Rain = 0
KOD1 071331Z 03011KT 00/00 A3036 RMK A01 T00030001  RH  098%=      5-min Rain = 0
KOD1 071332Z 03010KT 00/00 A3036 RMK A01 T00040001  RH  098%=      5-min Rain = 0
KOD1 071333Z 03011KT 00/00 A3035 RMK A01 T00040001  RH  098%=      5-min Rain = 0
KOD1 071334Z 03010KT 00/00 A3035 RMK A01 T00040001  RH  098%=      5-min Rain = 0
KOD1 071335Z 03012KT 00/00 A3036 RMK A01 T00040001  RH  098%=      5-min Rain = 0
KOD1 071336Z 03011KT 00/00 A3036 RMK A01 T00040001  RH  098%=      5-min Rain = 0
KOD1 071337Z 03010KT 00/00 A3036 RMK A01 T00040001  RH  098%=      5-min Rain = 0
KOD1 071338Z 03010KT 00/00 A3036 RMK A01 T00040001  RH  098%=      5-min Rain = 0
KOD1 071339Z 03010KT 00/00 A3035 RMK A01 T00040001  RH  098%=      5-min Rain = 0
KOD1 071340Z 03011KT 00/00 A3035 RMK A01 T00040001  RH  098%=      5-min Rain = 0
KOD1 071341Z 02009KT 00/00 A3035 RMK A01 T00040001  RH  098%=      5-min Rain = 0
KOD1 071342Z 03010KT 00/00 A3035 RMK A01 T00040001  RH  098%=      5-min Rain = 0
KOD1 071343Z 02012KT 00/00 A3035 RMK A01 T00040001  RH  098%=      5-min Rain = 0
KOD1 071344Z 03013KT 00/00 A3035 RMK A01 T00040000  RH  097%=      5-min Rain = 0
KOD1 071345Z 03012KT 00/00 A3035 RMK A01 T00040000  RH  097%=      5-min Rain = 0
KOD1 071346Z 02012KT 00/00 A3035 RMK A01 T00040000  RH  097%=      5-min Rain = 0
KOD1 071347Z 03012KT 00/00 A3035 RMK A01 T000400-0  RH  097%=      5-min Rain = 0
KOD1 071348Z 02011KT 00/00 A3035 RMK A01 T000400-0  RH  097%=      5-min Rain = 0
KOD1 071349Z 03014KT 00/00 A3035 RMK A01 T000400-0  RH  097%=      5-min Rain = 0
KOD1 071350Z 03012KT 00/M00 A3035 RMK A01 T00041001  RH  097%=      5-min Rain = 0
KOD1 071351Z 03011KT 00/M00 A3035 RMK A01 T00041001  RH  097%=      5-min Rain = 0
KOD1 071352Z 03011KT 00/M00 A3035 RMK A01 T00041001  RH  096%=      5-min Rain = 0
KOD1 071353Z 02011KT 00/M00 A3035 RMK A01 T00041001  RH  096%=      5-min Rain = 0
KOD1 071354Z 02012KT 01/M00 A3035 RMK A01 T00051001  RH  096%=      5-min Rain = 0
KOD1 071355Z 02012KT 00/M00 A3035 RMK A01 T00041001  RH  096%=      5-min Rain = 0
KOD1 071356Z 02011KT 00/M00 A3035 RMK A01 T00041001  RH  096%=      5-min Rain = 0
KOD1 071357Z 02012KT 00/M00 A3035 RMK A01 T00041002  RH  096%=      5-min Rain = 0
KOD1 071358Z 02012KT 00/M00 A3035 RMK A01 T00041002  RH  095%=      5-min Rain = 0
KOD1 071359Z 02011KT 01/M00 A3036 RMK A01 T00051002  RH  095%=      5-min Rain = 0
KOD1 071400Z 02011KT 01/M00 A3036 RMK A01 T00051002  RH  095%=      5-min Rain = 0
KOD1 071401Z 02011KT 01/M00 A3037 RMK A01 T00051003  RH  095%=      5-min Rain = 0
KOD1 071402Z 02007KT 01/M00 A3038 RMK A01 T00051003  RH  095%=      5-min Rain = 0
KOD1 071403Z 02007KT 01/M00 A3038 RMK A01 T00051003  RH  095%=      5-min Rain = 0
KOD1 071404Z 02006KT 01/M00 A3039 RMK A01 T00051003  RH  094%=      5-min Rain = 0
KOD1 071405Z 01007KT 01/M00 A3039 RMK A01 T00051003  RH  094%=      5-min Rain = 0
KOD1 071406Z 01007KT 01/M00 A3039 RMK A01 T00051003  RH  094%=      5-min Rain = 0
KOD1 071407Z 01005KT 01/M00 A304 RMK A01 T00051004  RH  094%=      5-min Rain = 0
KOD1 071408Z 01005KT 01/M00 A304 RMK A01 T00061003  RH  094%=      5-min Rain = 0
KOD1 071409Z 01004KT 01/M00 A304 RMK A01 T00061003  RH  094%=      5-min Rain = 0
KOD1 071410Z 00007KT 01/M00 A304 RMK A01 T00061003  RH  094%=      5-min Rain = 0
KOD1 071411Z 01007KT 01/M00 A304 RMK A01 T00061003  RH  093%=      5-min Rain = 0
KOD1 071412Z 01007KT 01/M00 A3039 RMK A01 T00061003  RH  093%=      5-min Rain = 0
KOD1 071413Z 01006KT 01/M00 A3039 RMK A01 T00061004  RH  093%=      5-min Rain = 0
KOD1 071414Z 01007KT 01/M00 A3039 RMK A01 T00071003  RH  093%=      5-min Rain = 0
KOD1 071415Z 00006KT 01/M00 A3039 RMK A01 T00071003  RH  093%=      5-min Rain = 0
KOD1 071416Z 00005KT 01/M00 A3039 RMK A01 T00071003  RH  093%=      5-min Rain = 0
KOD1 071417Z 01005KT 01/M00 A3039 RMK A01 T00071003  RH  093%=      5-min Rain = 0
KOD1 071418Z 01004KT 01/M00 A3039 RMK A01 T00071003  RH  093%=      5-min Rain = 0
KOD1 071419Z 00004KT 01/M00 A3039 RMK A01 T00071003  RH  093%=      5-min Rain = 0
KOD1 071420Z 01004KT 01/M00 A3039 RMK A01 T00071003  RH  093%=      5-min Rain = 0
KOD1 071421Z 01004KT 01/M00 A3039 RMK A01 T00071003  RH  093%=      5-min Rain = 0
KOD1 071422Z 01005KT 01/M00 A3039 RMK A01 T00071003  RH  093%=      5-min Rain = 0
KOD1 071423Z 01003KT 01/M00 A304 RMK A01 T00081003  RH  093%=      5-min Rain = 0
KOD1 071424Z 01004KT 01/M00 A304 RMK A01 T00081003  RH  093%=      5-min Rain = 0
KOD1 071425Z 00004KT 01/M00 A3039 RMK A01 T00081003  RH  093%=      5-min Rain = 0
KOD1 071426Z 01004KT 01/M00 A3039 RMK A01 T00081003  RH  092%=      5-min Rain = 0
KOD1 071427Z 01005KT 01/M00 A3039 RMK A01 T00081003  RH  093%=      5-min Rain = 0
KOD1 071428Z 01005KT 01/M00 A3039 RMK A01 T00081004  RH  092%=      5-min Rain = 0
KOD1 071429Z 00005KT 01/M00 A3039 RMK A01 T00081004  RH  092%=      5-min Rain = 0
KOD1 071430Z 01006KT 01/M00 A3039 RMK A01 T00081003  RH  092%=      5-min Rain = 0
KOD1 071431Z 01006KT 01/M00 A3039 RMK A01 T00081004  RH  092%=      5-min Rain = 0
KOD1 071432Z 01006KT 01/M00 A3039 RMK A01 T00081003  RH  092%=      5-min Rain = 0
KOD1 071433Z 01006KT 01/M00 A3039 RMK A01 T00081004  RH  092%=      5-min Rain = 0
KOD1 071434Z 01005KT 01/M00 A3039 RMK A01 T00081004  RH  092%=      5-min Rain = 0
KOD1 071435Z 00005KT 01/M00 A304 RMK A01 T00081003  RH  092%=      5-min Rain = 0
KOD1 071436Z 00006KT 01/M00 A304 RMK A01 T00091004  RH  092%=      5-min Rain = 0
KOD1 071437Z 36007KT 01/M00 A304 RMK A01 T00081004  RH  091%=      5-min Rain = 0
KOD1 071438Z 35007KT 01/M00 A304 RMK A01 T00091004  RH  091%=      5-min Rain = 0
KOD1 071439Z 34006KT 01/M01 A304 RMK A01 T00091005  RH  091%=      5-min Rain = 0
KOD1 071440Z 34004KT 01/M00 A3041 RMK A01 T00091004  RH  091%=      5-min Rain = 0
KOD1 071441Z 34004KT 01/M00 A3041 RMK A01 T00091004  RH  091%=      5-min Rain = 0
KOD1 071442Z 35005KT 01/M00 A3041 RMK A01 T00091004  RH  091%=      5-min Rain = 0
KOD1 071443Z 35006KT 01/M00 A3041 RMK A01 T00091004  RH  091%=      5-min Rain = 0
KOD1 071444Z 36006KT 01/M00 A3041 RMK A01 T00091004  RH  091%=      5-min Rain = 0
KOD1 071445Z 35006KT 01/M00 A3041 RMK A01 T00091004  RH  091%=      5-min Rain = 0
KOD1 071446Z 36007KT 01/M01 A3041 RMK A01 T00091005  RH  090%=      5-min Rain = 0
KOD1 071447Z 35006KT 01/M01 A3041 RMK A01 T00101005  RH  090%=      5-min Rain = 0
KOD1 071448Z 36007KT 01/M00 A3041 RMK A01 T00101004  RH  090%=      5-min Rain = 0
KOD1 071449Z 36007KT 01/M00 A3041 RMK A01 T00101004  RH  090%=      5-min Rain = 0
KOD1 071450Z 36007KT 01/M00 A3041 RMK A01 T00101004  RH  090%=      5-min Rain = 0
KOD1 071451Z 00006KT 01/M00 A3041 RMK A01 T00101004  RH  090%=      5-min Rain = 0
KOD1 071452Z 35006KT 01/M00 A304 RMK A01 T00101004  RH  090%=      5-min Rain = 0
KOD1 071453Z 36005KT 01/M00 A304 RMK A01 T00101003  RH  091%=      5-min Rain = 0
KOD1 071454Z 01006KT 01/M00 A304 RMK A01 T00111003  RH  090%=      5-min Rain = 0
KOD1 071455Z 02007KT 01/M01 A304 RMK A01 T00101005  RH  090%=      5-min Rain = 0
KOD1 071456Z 01006KT 01/M01 A304 RMK A01 T00101005  RH  090%=      5-min Rain = 0
KOD1 071457Z 01008KT 01/M01 A304 RMK A01 T00101005  RH  090%=      5-min Rain = 0
KOD1 071458Z 01008KT 01/M01 A304 RMK A01 T00101006  RH  089%=      5-min Rain = 0
KOD1 071459Z 02007KT 01/M01 A304 RMK A01 T00101005  RH  089%=      5-min Rain = 0
KOD1 071500Z 02007KT 01/M01 A304 RMK A01 T00101005  RH  090%=      5-min Rain = 0
KOD1 071501Z 02007KT 01/M01 A304 RMK A01 T00101005  RH  089%=      5-min Rain = 0
KOD1 071502Z 01008KT 01/M01 A3039 RMK A01 T00101006  RH  089%=      5-min Rain = 0
KOD1 071503Z 02007KT 01/M01 A3039 RMK A01 T00101006  RH  089%=      5-min Rain = 0
KOD1 071504Z 02008KT 01/M01 A3039 RMK A01 T00101007  RH  089%=      5-min Rain = 0
KOD1 071505Z 02009KT 01/M01 A3039 RMK A01 T00101008  RH  088%=      5-min Rain = 0
KOD1 071506Z 02009KT 01/M01 A3039 RMK A01 T00101008  RH  088%=      5-min Rain = 0
KOD1 071507Z 02007KT 01/M01 A3039 RMK A01 T00101007  RH  088%=      5-min Rain = 0
KOD1 071508Z 02009KT 01/M01 A3039 RMK A01 T00111007  RH  088%=      5-min Rain = 0
KOD1 071509Z 02008KT 01/M01 A3039 RMK A01 T00111007  RH  088%=      5-min Rain = 0
KOD1 071510Z 02008KT 01/M01 A3039 RMK A01 T00111007  RH  088%=      5-min Rain = 0
KOD1 071511Z 02008KT 01/M01 A3039 RMK A01 T00111007  RH  088%=      5-min Rain = 0
KOD1 071512Z 02009KT 01/M01 A3039 RMK A01 T00111007  RH  088%=      5-min Rain = 0
KOD1 071513Z 02008KT 01/M01 A3039 RMK A01 T00111007  RH  088%=      5-min Rain = 0
KOD1 071514Z 02008KT 01/M01 A3039 RMK A01 T00111008  RH  087%=      5-min Rain = 0
KOD1 071515Z 02008KT 01/M01 A3039 RMK A01 T00111008  RH  087%=      5-min Rain = 0
KOD1 071516Z 02007KT 01/M01 A3039 RMK A01 T00111008  RH  087%=      5-min Rain = 0
KOD1 071517Z 01007KT 01/M01 A3039 RMK A01 T00111007  RH  088%=      5-min Rain = 0
KOD1 071518Z 01009KT 01/M01 A3039 RMK A01 T00111008  RH  087%=      5-min Rain = 0
KOD1 071519Z 01008KT 01/M01 A3039 RMK A01 T00111010  RH  086%=      5-min Rain = 0
KOD1 071520Z 01008KT 01/M01 A3039 RMK A01 T00111009  RH  086%=      5-min Rain = 0
KOD1 071521Z 02009KT 01/M01 A3039 RMK A01 T00111009  RH  086%=      5-min Rain = 0
KOD1 071522Z 02008KT 01/M01 A3039 RMK A01 T00111009  RH  086%=      5-min Rain = 0
KOD1 071523Z 01008KT 01/M01 A3039 RMK A01 T00111009  RH  086%=      5-min Rain = 0
KOD1 071524Z 01009KT 01/M01 A3039 RMK A01 T00121008  RH  086%=      5-min Rain = 0
KOD1 071525Z 01008KT 01/M01 A3039 RMK A01 T00121009  RH  086%=      5-min Rain = 0
KOD1 071526Z 01007KT 01/M01 A3039 RMK A01 T00121009  RH  086%=      5-min Rain = 0
KOD1 071527Z 36008KT 01/M01 A304 RMK A01 T00121009  RH  086%=      5-min Rain = 0
KOD1 071528Z 00009KT 01/M01 A304 RMK A01 T00121009  RH  086%=      5-min Rain = 0
KOD1 071529Z 01009KT 01/M01 A304 RMK A01 T00121010  RH  086%=      5-min Rain = 0
KOD1 071530Z 00008KT 01/M01 A304 RMK A01 T00121010  RH  085%=      5-min Rain = 0
KOD1 071531Z 00010KT 01/M01 A304 RMK A01 T00121012  RH  084%=      5-min Rain = 0
KOD1 071532Z 00009KT 01/M01 A304 RMK A01 T00121013  RH  084%=      5-min Rain = 0
KOD1 071533Z 36009KT 01/M01 A3041 RMK A01 T00121013  RH  084%=      5-min Rain = 0
KOD1 071534Z 35010KT 01/M01 A3041 RMK A01 T00121013  RH  084%=      5-min Rain = 0
KOD1 071535Z 35009KT 01/M01 A3041 RMK A01 T00121013  RH  083%=      5-min Rain = 0
KOD1 071536Z 35009KT 01/M01 A3041 RMK A01 T00121013  RH  083%=      5-min Rain = 0
KOD1 071537Z 00009KT 01/M01 A3041 RMK A01 T00121013  RH  084%=      5-min Rain = 0
KOD1 071538Z 00008KT 01/M01 A3041 RMK A01 T00121012  RH  084%=      5-min Rain = 0
KOD1 071539Z 00008KT 01/M01 A3041 RMK A01 T00121012  RH  084%=      5-min Rain = 0
KOD1 071540Z 01009KT 01/M01 A3041 RMK A01 T00131012  RH  084%=      5-min Rain = 0
KOD1 071541Z 01009KT 01/M01 A3041 RMK A01 T00121014  RH  083%=      5-min Rain = 0
KOD1 071542Z 00010KT 01/M01 A304 RMK A01 T00121013  RH  083%=      5-min Rain = 0
KOD1 071543Z 36009KT 01/M01 A304 RMK A01 T00121014  RH  083%=      5-min Rain = 0
KOD1 071544Z 00007KT 01/M01 A304 RMK A01 T00131012  RH  083%=      5-min Rain = 0
KOD1 071545Z 36008KT 01/M01 A304 RMK A01 T00131012  RH  083%=      5-min Rain = 0
KOD1 071546Z 35010KT 01/M01 A304 RMK A01 T00131014  RH  082%=      5-min Rain = 0
KOD1 071547Z 35010KT 01/M01 A3041 RMK A01 T00131014  RH  082%=      5-min Rain = 0
KOD1 071548Z 36010KT 01/M02 A3041 RMK A01 T00131015  RH  082%=      5-min Rain = 0
KOD1 071549Z 36008KT 01/M02 A3041 RMK A01 T00131015  RH  082%=      5-min Rain = 0
KOD1 071550Z 36007KT 01/M01 A3041 RMK A01 T00131014  RH  082%=      5-min Rain = 0
KOD1 071551Z 00008KT 01/M01 A3041 RMK A01 T00131013  RH  083%=      5-min Rain = 0
KOD1 071552Z 36008KT 01/M02 A3041 RMK A01 T00131015  RH  082%=      5-min Rain = 0
KOD1 071553Z 36008KT 01/M01 A3041 RMK A01 T00131014  RH  082%=      5-min Rain = 0
KOD1 071554Z 36009KT 01/M02 A3041 RMK A01 T00131016  RH  081%=      5-min Rain = 0
KOD1 071555Z 36008KT 01/M02 A3042 RMK A01 T00131017  RH  081%=      5-min Rain = 0
KOD1 071556Z 35009KT 01/M02 A3042 RMK A01 T00131016  RH  081%=      5-min Rain = 0
KOD1 071557Z 36008KT 01/M02 A3042 RMK A01 T00131015  RH  082%=      5-min Rain = 0
KOD1 071558Z 35008KT 01/M02 A3041 RMK A01 T00131015  RH  081%=      5-min Rain = 0
KOD1 071559Z 00009KT 01/M02 A3042 RMK A01 T00141015  RH  081%=      5-min Rain = 0
KOD1 071600Z 36009KT 01/M02 A3042 RMK A01 T00131016  RH  081%=      5-min Rain = 0
KOD1 071601Z 36008KT 01/M02 A3042 RMK A01 T00141015  RH  081%=      5-min Rain = 0
KOD1 071602Z 00010KT 01/M02 A3042 RMK A01 T00141016  RH  081%=      5-min Rain = 0
KOD1 071603Z 00010KT 01/M02 A3042 RMK A01 T00131016  RH  081%=      5-min Rain = 0
KOD1 071604Z 00010KT 01/M02 A3041 RMK A01 T00131017  RH  080%=      5-min Rain = 0
KOD1 071605Z 00010KT 01/M02 A3041 RMK A01 T00131017  RH  080%=      5-min Rain = 0
KOD1 071606Z 00009KT 01/M02 A3041 RMK A01 T00131017  RH  080%=      5-min Rain = 0
KOD1 071607Z 36011KT 01/M02 A3042 RMK A01 T00131018  RH  080%=      5-min Rain = 0
KOD1 071608Z 36009KT 01/M02 A3042 RMK A01 T00131017  RH  080%=      5-min Rain = 0
KOD1 071609Z 36011KT 01/M02 A3042 RMK A01 T00141017  RH  080%=      5-min Rain = 0
KOD1 071610Z 35009KT 01/M02 A3042 RMK A01 T00141017  RH  080%=      5-min Rain = 0
KOD1 071611Z 35010KT 01/M02 A3042 RMK A01 T00141018  RH  080%=      5-min Rain = 0
KOD1 071612Z 36009KT 01/M02 A3042 RMK A01 T00141017  RH  080%=      5-min Rain = 0
KOD1 071613Z 36009KT 01/M02 A3042 RMK A01 T00141017  RH  080%=      5-min Rain = 0
KOD1 071614Z 35009KT 01/M02 A3042 RMK A01 T00141017  RH  079%=      5-min Rain = 0
KOD1 071615Z 35007KT 01/M02 A3042 RMK A01 T00141016  RH  080%=      5-min Rain = 0
KOD1 071616Z 36009KT 02/M02 A3042 RMK A01 T00151017  RH  080%=      5-min Rain = 0
KOD1 071617Z 35009KT 02/M02 A3042 RMK A01 T00151016  RH  080%=      5-min Rain = 0
KOD1 071618Z 36010KT 02/M02 A3042 RMK A01 T00151018  RH  079%=      5-min Rain = 0
KOD1 071619Z 00009KT 02/M02 A3042 RMK A01 T00151017  RH  079%=      5-min Rain = 0
KOD1 071620Z 00008KT 02/M02 A3042 RMK A01 T00151016  RH  080%=      5-min Rain = 0
KOD1 071621Z 00007KT 02/M02 A3042 RMK A01 T00151016  RH  080%=      5-min Rain = 0
KOD1 071622Z 00008KT 02/M02 A3042 RMK A01 T00151015  RH  080%=      5-min Rain = 0
KOD1 071623Z 35010KT 02/M02 A3042 RMK A01 T00151016  RH  080%=      5-min Rain = 0
KOD1 071624Z 35009KT 02/M02 A3042 RMK A01 T00151018  RH  079%=      5-min Rain = 0
KOD1 071625Z 36010KT 02/M02 A3042 RMK A01 T00151018  RH  079%=      5-min Rain = 0
KOD1 071626Z 36010KT 02/M02 A3042 RMK A01 T00151018  RH  079%=      5-min Rain = 0
KOD1 071627Z 36010KT 02/M02 A3042 RMK A01 T00151017  RH  079%=      5-min Rain = 0
KOD1 071628Z 35011KT 02/M02 A3042 RMK A01 T00151018  RH  079%=      5-min Rain = 0
KOD1 071629Z 00009KT 02/M02 A3042 RMK A01 T00151017  RH  079%=      5-min Rain = 0
KOD1 071630Z 00009KT 02/M02 A3042 RMK A01 T00151017  RH  079%=      5-min Rain = 0
KOD1 071631Z 00009KT 01/M02 A3042 RMK A01 T00141017  RH  079%=      5-min Rain = 0
KOD1 071632Z 01009KT 01/M02 A3042 RMK A01 T00141017  RH  080%=      5-min Rain = 0
KOD1 071633Z 00008KT 01/M02 A3042 RMK A01 T00141016  RH  080%=      5-min Rain = 0
KOD1 071634Z 00009KT 02/M02 A3042 RMK A01 T00151015  RH  080%=      5-min Rain = 0
KOD1 071635Z 36009KT 02/M02 A3042 RMK A01 T00151016  RH  080%=      5-min Rain = 0
KOD1 071636Z 35009KT 02/M02 A3042 RMK A01 T00151017  RH  079%=      5-min Rain = 0
KOD1 071637Z 36009KT 01/M02 A3042 RMK A01 T00141017  RH  079%=      5-min Rain = 0
KOD1 071638Z 36009KT 01/M02 A3042 RMK A01 T00141018  RH  079%=      5-min Rain = 0
KOD1 071639Z 36008KT 01/M02 A3042 RMK A01 T00141017  RH  080%=      5-min Rain = 0
KOD1 071640Z 35008KT 02/M02 A3042 RMK A01 T00151017  RH  079%=      5-min Rain = 0
KOD1 071641Z 01008KT 02/M02 A3042 RMK A01 T00151017  RH  079%=      5-min Rain = 0
KOD1 071642Z 02010KT 01/M02 A3042 RMK A01 T00141018  RH  079%=      5-min Rain = 0
KOD1 071643Z 01010KT 01/M02 A3042 RMK A01 T00141019  RH  078%=      5-min Rain = 0
KOD1 071644Z 01010KT 01/M02 A3042 RMK A01 T00141020  RH  078%=      5-min Rain = 0
KOD1 071645Z 01009KT 01/M02 A3042 RMK A01 T00141020  RH  078%=      5-min Rain = 0
KOD1 071646Z 00009KT 01/M02 A3042 RMK A01 T00141020  RH  078%=      5-min Rain = 0
KOD1 071647Z 01008KT 01/M02 A3042 RMK A01 T00141019  RH  079%=      5-min Rain = 0
KOD1 071648Z 01009KT 01/M02 A3042 RMK A01 T00141018  RH  079%=      5-min Rain = 0
KOD1 071649Z 01008KT 01/M02 A3042 RMK A01 T00141018  RH  079%=      5-min Rain = 0
KOD1 071650Z 01010KT 01/M02 A3042 RMK A01 T00141019  RH  079%=      5-min Rain = 0
KOD1 071651Z 01008KT 01/M02 A3042 RMK A01 T00141019  RH  079%=      5-min Rain = 0
KOD1 071652Z 01009KT 01/M02 A3042 RMK A01 T00141019  RH  079%=      5-min Rain = 0
KOD1 071653Z 01008KT 01/M02 A3042 RMK A01 T00141019  RH  078%=      5-min Rain = 0
KOD1 071654Z 01009KT 01/M02 A3042 RMK A01 T00141019  RH  079%=      5-min Rain = 0
KOD1 071655Z 01008KT 01/M02 A3042 RMK A01 T00141018  RH  079%=      5-min Rain = 0
KOD1 071656Z 36009KT 01/M02 A3042 RMK A01 T00141019  RH  079%=      5-min Rain = 0
KOD1 071657Z 00008KT 01/M02 A3042 RMK A01 T00141018  RH  079%=      5-min Rain = 0
KOD1 071658Z 00008KT 02/M02 A3042 RMK A01 T00151018  RH  079%=      5-min Rain = 0
KOD1 071659Z 00008KT 02/M02 A3042 RMK A01 T00151018  RH  079%=      5-min Rain = 0
KOD1 071700Z 36008KT 02/M02 A3042 RMK A01 T00151018  RH  079%=      5-min Rain = 0
KOD1 071701Z 35009KT 02/M02 A3042 RMK A01 T00151018  RH  079%=      5-min Rain = 0
KOD1 071702Z 35010KT 02/M02 A3042 RMK A01 T00151019  RH  078%=      5-min Rain = 0
KOD1 071703Z 36010KT 01/M02 A3042 RMK A01 T00141020  RH  078%=      5-min Rain = 0
KOD1 071704Z 00008KT 01/M02 A3042 RMK A01 T00141020  RH  078%=      5-min Rain = 0
KOD1 071705Z 00010KT 01/M02 A3042 RMK A01 T00141020  RH  078%=      5-min Rain = 0
KOD1 071706Z 00010KT 01/M02 A3042 RMK A01 T00141019  RH  079%=      5-min Rain = 0
KOD1 071707Z 00008KT 01/M02 A3042 RMK A01 T00141019  RH  079%=      5-min Rain = 0
KOD1 071708Z 00008KT 01/M02 A3041 RMK A01 T00141017  RH  080%=      5-min Rain = 0
KOD1 071709Z 36009KT 01/M02 A3041 RMK A01 T00141017  RH  080%=      5-min Rain = 0
KOD1 071710Z 00007KT 01/M02 A3041 RMK A01 T00141017  RH  080%=      5-min Rain = 0
KOD1 071711Z 36009KT 01/M02 A3041 RMK A01 T00141017  RH  080%=      5-min Rain = 0
KOD1 071712Z 36009KT 01/M02 A3041 RMK A01 T00141017  RH  080%=      5-min Rain = 0
KOD1 071713Z 36009KT 01/M02 A3041 RMK A01 T00141017  RH  080%=      5-min Rain = 0
KOD1 071714Z 00009KT 01/M02 A3041 RMK A01 T00141017  RH  080%=      5-min Rain = 0
KOD1 071715Z 36009KT 01/M02 A3041 RMK A01 T00141018  RH  079%=      5-min Rain = 0
KOD1 071716Z 00009KT 01/M02 A3041 RMK A01 T00141018  RH  079%=      5-min Rain = 0
KOD1 071717Z 01009KT 01/M02 A3041 RMK A01 T00141019  RH  079%=      5-min Rain = 0
KOD1 071718Z 01008KT 01/M02 A3041 RMK A01 T00141018  RH  079%=      5-min Rain = 0
KOD1 071719Z 01006KT 01/M02 A3041 RMK A01 T00141016  RH  080%=      5-min Rain = 0
KOD1 071720Z 36007KT 01/M02 A3041 RMK A01 T00141016  RH  080%=      5-min Rain = 0
KOD1 071721Z 36009KT 01/M02 A3041 RMK A01 T00141018  RH  079%=      5-min Rain = 0
KOD1 071722Z 00009KT 01/M02 A3041 RMK A01 T00141018  RH  079%=      5-min Rain = 0
KOD1 071723Z 36009KT 01/M02 A3041 RMK A01 T00141018  RH  079%=      5-min Rain = 0
KOD1 071724Z 36008KT 01/M02 A3041 RMK A01 T00141020  RH  078%=      5-min Rain = 0
KOD1 071725Z 01007KT 01/M02 A3041 RMK A01 T00141019  RH  079%=      5-min Rain = 0
KOD1 071726Z 01009KT 01/M02 A3041 RMK A01 T00141019  RH  078%=      5-min Rain = 0
KOD1 071727Z 01009KT 01/M02 A3041 RMK A01 T00141020  RH  078%=      5-min Rain = 0
KOD1 071728Z 01009KT 01/M02 A3041 RMK A01 T00141020  RH  078%=      5-min Rain = 0
KOD1 071729Z 36008KT 01/M02 A3041 RMK A01 T00141019  RH  078%=      5-min Rain = 0
KOD1 071730Z 00009KT 01/M02 A3041 RMK A01 T00141020  RH  078%=      5-min Rain = 0
KOD1 071731Z 00008KT 01/M02 A304 RMK A01 T00141021  RH  078%=      5-min Rain = 0
KOD1 071732Z 00008KT 01/M02 A304 RMK A01 T00141020  RH  078%=      5-min Rain = 0
KOD1 071733Z 36008KT 02/M02 A304 RMK A01 T00151019  RH  078%=      5-min Rain = 0
KOD1 071734Z 01008KT 02/M02 A304 RMK A01 T00151019  RH  078%=      5-min Rain = 0
KOD1 071735Z 01008KT 02/M02 A304 RMK A01 T00151019  RH  078%=      5-min Rain = 0
KOD1 071736Z 01007KT 02/M02 A304 RMK A01 T00151019  RH  078%=      5-min Rain = 0
KOD1 071737Z 01007KT 02/M02 A304 RMK A01 T00161018  RH  078%=      5-min Rain = 0
KOD1 071738Z 01008KT 02/M02 A304 RMK A01 T00161017  RH  079%=      5-min Rain = 0
KOD1 071739Z 01009KT 02/M02 A304 RMK A01 T00161020  RH  077%=      5-min Rain = 0
KOD1 071740Z 02008KT 02/M02 A304 RMK A01 T00151020  RH  077%=      5-min Rain = 0
KOD1 071741Z 01009KT 02/M02 A304 RMK A01 T00151019  RH  078%=      5-min Rain = 0
KOD1 071742Z 01009KT 02/M02 A304 RMK A01 T00151020  RH  078%=      5-min Rain = 0
KOD1 071743Z 00008KT 02/M02 A304 RMK A01 T00151019  RH  078%=      5-min Rain = 0
KOD1 071744Z 36009KT 02/M02 A304 RMK A01 T00151018  RH  078%=      5-min Rain = 0
KOD1 071745Z 00010KT 02/M02 A3039 RMK A01 T00151020  RH  077%=      5-min Rain = 0
KOD1 071746Z 01009KT 02/M02 A3039 RMK A01 T00151019  RH  078%=      5-min Rain = 0
KOD1 071747Z 36008KT 02/M02 A3039 RMK A01 T00151018  RH  079%=      5-min Rain = 0
KOD1 071748Z 00007KT 02/M02 A3039 RMK A01 T00151017  RH  080%=      5-min Rain = 0
KOD1 071749Z 01007KT 02/M02 A3039 RMK A01 T00151015  RH  081%=      5-min Rain = 0
KOD1 071750Z 36009KT 01/M02 A3039 RMK A01 T00141015  RH  081%=      5-min Rain = 0
KOD1 071751Z 00007KT 01/M01 A3039 RMK A01 T00141013  RH  082%=      5-min Rain = 0
KOD1 071752Z 00008KT 01/M01 A3039 RMK A01 T00141013  RH  082%=      5-min Rain = 0
KOD1 071753Z 36008KT 01/M01 A3039 RMK A01 T00131014  RH  082%=      5-min Rain = 0
KOD1 071754Z 01009KT 01/M01 A3039 RMK A01 T00131014  RH  082%=      5-min Rain = 0
KOD1 071755Z 36007KT 01/M01 A3038 RMK A01 T00131011  RH  084%=      5-min Rain = 0
KOD1 071756Z 00009KT 01/M01 A3038 RMK A01 T00131011  RH  084%=      5-min Rain = 0
KOD1 071757Z 00008KT 01/M01 A3038 RMK A01 T00131011  RH  084%=      5-min Rain = 0
KOD1 071758Z 36008KT 01/M01 A3038 RMK A01 T00131009  RH  085%=      5-min Rain = 0
KOD1 071759Z 36010KT 01/M01 A3038 RMK A01 T00131010  RH  085%=      5-min Rain = 0
KOD1 071800Z 00009KT 01/M01 A3038 RMK A01 T00131009  RH  086%=      5-min Rain = 0
KOD1 071801Z 00010KT 01/M01 A3038 RMK A01 T00121010  RH  085%=      5-min Rain = 0
KOD1 071802Z 35010KT 01/M01 A3038 RMK A01 T00121011  RH  085%=      5-min Rain = 0
KOD1 071803Z 35009KT 01/M01 A3038 RMK A01 T00121009  RH  086%=      5-min Rain = 0
KOD1 071804Z 36011KT 01/M01 A3038 RMK A01 T00121009  RH  086%=      5-min Rain = 0
KOD1 071805Z 00010KT 01/M01 A3038 RMK A01 T00111010  RH  086%=      5-min Rain = 0
KOD1 071806Z 00010KT 01/M01 A3038 RMK A01 T00111009  RH  086%=      5-min Rain = 0
KOD1 071807Z 00010KT 01/M01 A3038 RMK A01 T00111009  RH  086%=      5-min Rain = 0
KOD1 071808Z 01008KT 01/M01 A3038 RMK A01 T00111008  RH  087%=      5-min Rain = 0
KOD1 071809Z 01008KT 01/M01 A3038 RMK A01 T00111006  RH  088%=      5-min Rain = 0
KOD1 071810Z 00008KT 01/M01 A3038 RMK A01 T00111006  RH  088%=      5-min Rain = 0
KOD1 071811Z 00010KT 01/M01 A3038 RMK A01 T00111006  RH  088%=      5-min Rain = 0.01
KOD1 071812Z 00010KT 01/M01 A3038 RMK A01 T00111006  RH  088%=      5-min Rain = 0
KOD1 071813Z 01009KT 01/M01 A3038 RMK A01 T00111007  RH  088%=      5-min Rain = 0
KOD1 071814Z 01010KT 01/M01 A3037 RMK A01 T00111007  RH  088%=      5-min Rain = 0
KOD1 071815Z 01010KT 01/M01 A3037 RMK A01 T00101007  RH  088%=      5-min Rain = 0
KOD1 071816Z 02010KT 01/M01 A3037 RMK A01 T00101008  RH  088%=      5-min Rain = 0
KOD1 071817Z 01011KT 01/M01 A3037 RMK A01 T00101007  RH  088%=      5-min Rain = 0.01
KOD1 071818Z 01011KT 01/M01 A3037 RMK A01 T00101008  RH  088%=      5-min Rain = 0
KOD1 071819Z 01009KT 01/M01 A3037 RMK A01 T00101009  RH  088%=      5-min Rain = 0
KOD1 071820Z 01008KT 01/M01 A3037 RMK A01 T00101008  RH  088%=      5-min Rain = 0
KOD1 071821Z 36008KT 01/M01 A3037 RMK A01 T00101006  RH  089%=      5-min Rain = 0
KOD1 071822Z 00009KT 01/M01 A3037 RMK A01 T00101006  RH  089%=      5-min Rain = 0
KOD1 071823Z 00007KT 01/M01 A3037 RMK A01 T00111005  RH  090%=      5-min Rain = 0
KOD1 071824Z 01009KT 01/M00 A3037 RMK A01 T00111004  RH  090%=      5-min Rain = 0
KOD1 071825Z 01008KT 01/M01 A3037 RMK A01 T00111005  RH  089%=      5-min Rain = 0
KOD1 071826Z 02008KT 01/M00 A3037 RMK A01 T00111004  RH  090%=      5-min Rain = 0.01
KOD1 071827Z 02008KT 01/M00 A3037 RMK A01 T00111004  RH  090%=      5-min Rain = 0
KOD1 071828Z 01008KT 01/M00 A3037 RMK A01 T00111003  RH  090%=      5-min Rain = 0
KOD1 071829Z 01009KT 01/M00 A3037 RMK A01 T00111004  RH  089%=      5-min Rain = 0
KOD1 071830Z 00009KT 01/M01 A3037 RMK A01 T00111005  RH  089%=      5-min Rain = 0
KOD1 071831Z 01008KT 01/M00 A3037 RMK A01 T00111004  RH  090%=      5-min Rain = 0
KOD1 071832Z 36008KT 01/M00 A3037 RMK A01 T00121003  RH  090%=      5-min Rain = 0
KOD1 071833Z 00008KT 01/M00 A3037 RMK A01 T00121004  RH  089%=      5-min Rain = 0
KOD1 071834Z 00008KT 01/M00 A3037 RMK A01 T00121004  RH  089%=      5-min Rain = 0
KOD1 071835Z 36008KT 01/M00 A3037 RMK A01 T00121004  RH  090%=      5-min Rain = 0
KOD1 071836Z 36007KT 01/M01 A3037 RMK A01 T00111006  RH  089%=      5-min Rain = 0
KOD1 071837Z 35007KT 01/M01 A3037 RMK A01 T00111005  RH  089%=      5-min Rain = 0
KOD1 071838Z 36008KT 01/M00 A3037 RMK A01 T00121004  RH  090%=      5-min Rain = 0
KOD1 071839Z 36008KT 01/M00 A3036 RMK A01 T00121004  RH  090%=      5-min Rain = 0
KOD1 071840Z 00009KT 01/M00 A3037 RMK A01 T00121003  RH  090%=      5-min Rain = 0
KOD1 071841Z 36008KT 01/M01 A3037 RMK A01 T00111005  RH  089%=      5-min Rain = 0
KOD1 071842Z 36009KT 01/M01 A3037 RMK A01 T00111006  RH  089%=      5-min Rain = 0
KOD1 071843Z 36008KT 01/M01 A3036 RMK A01 T00111005  RH  089%=      5-min Rain = 0
KOD1 071844Z 01006KT 01/M00 A3036 RMK A01 T00111004  RH  090%=      5-min Rain = 0
KOD1 071845Z 00009KT 01/M00 A3036 RMK A01 T00111004  RH  090%=      5-min Rain = 0
KOD1 071846Z 01007KT 01/M00 A3036 RMK A01 T00111004  RH  090%=      5-min Rain = 0
KOD1 071847Z 00008KT 01/M00 A3036 RMK A01 T00111004  RH  090%=      5-min Rain = 0
KOD1 071848Z 01008KT 01/M00 A3036 RMK A01 T00111004  RH  090%=      5-min Rain = 0
KOD1 071849Z 01006KT 01/M00 A3036 RMK A01 T00111003  RH  090%=      5-min Rain = 0
KOD1 071850Z 01008KT 01/M00 A3035 RMK A01 T00111003  RH  090%=      5-min Rain = 0.01
KOD1 071851Z 02009KT 01/M00 A3035 RMK A01 T00111004  RH  090%=      5-min Rain = 0
KOD1 071852Z 02009KT 01/M01 A3035 RMK A01 T00101005  RH  089%=      5-min Rain = 0
KOD1 071853Z 02007KT 01/M01 A3035 RMK A01 T00101006  RH  089%=      5-min Rain = 0
KOD1 071854Z 01008KT 01/M00 A3035 RMK A01 T00101004  RH  090%=      5-min Rain = 0
KOD1 071855Z 01007KT 01/M00 A3035 RMK A01 T00111003  RH  091%=      5-min Rain = 0
KOD1 071856Z 01008KT 01/M00 A3035 RMK A01 T00111003  RH  091%=      5-min Rain = 0
KOD1 071857Z 01009KT 01/M00 A3035 RMK A01 T00111003  RH  091%=      5-min Rain = 0
KOD1 071858Z 01009KT 01/M00 A3035 RMK A01 T00111003  RH  091%=      5-min Rain = 0
KOD1 071859Z 01008KT 01/M00 A3035 RMK A01 T00111004  RH  090%=      5-min Rain = 0
KOD1 071900Z 36008KT 01/M00 A3035 RMK A01 T00111003  RH  091%=      5-min Rain = 0
KOD1 071901Z 00006KT 01/M00 A3035 RMK A01 T00111003  RH  091%=      5-min Rain = 0
KOD1 071902Z 36007KT 01/M00 A3035 RMK A01 T00111002  RH  091%=      5-min Rain = 0
KOD1 071903Z 00009KT 01/M00 A3034 RMK A01 T00111004  RH  090%=      5-min Rain = 0
KOD1 071904Z 36008KT 01/M00 A3034 RMK A01 T00111003  RH  091%=      5-min Rain = 0
KOD1 071905Z 00008KT 01/M00 A3034 RMK A01 T00111002  RH  091%=      5-min Rain = 0
KOD1 071906Z 00008KT 01/M00 A3034 RMK A01 T00111003  RH  091%=      5-min Rain = 0
KOD1 071907Z 36007KT 01/M00 A3034 RMK A01 T00111002  RH  091%=      5-min Rain = 0
KOD1 071908Z 36007KT 01/M00 A3034 RMK A01 T00111002  RH  091%=      5-min Rain = 0
KOD1 071909Z 00008KT 01/M00 A3034 RMK A01 T00121001  RH  091%=      5-min Rain = 0
KOD1 071910Z 36009KT 01/M00 A3034 RMK A01 T00121002  RH  091%=      5-min Rain = 0
KOD1 071911Z 00009KT 01/M00 A3034 RMK A01 T00111002  RH  091%=      5-min Rain = 0
KOD1 071912Z 00009KT 01/M00 A3034 RMK A01 T00111003  RH  090%=      5-min Rain = 0
KOD1 071913Z 01009KT 01/M00 A3034 RMK A01 T00111003  RH  091%=      5-min Rain = 0
KOD1 071914Z 00009KT 01/M00 A3034 RMK A01 T00111002  RH  091%=      5-min Rain = 0
KOD1 071915Z 36008KT 01/M00 A3034 RMK A01 T00121001  RH  091%=      5-min Rain = 0
KOD1 071916Z 01006KT 01/00 A3034 RMK A01 T001200-0  RH  092%=      5-min Rain = 0
KOD1 071917Z 01007KT 01/00 A3033 RMK A01 T00130001  RH  092%=      5-min Rain = 0
KOD1 071918Z 01007KT 01/00 A3033 RMK A01 T00130001  RH  092%=      5-min Rain = 0
KOD1 071919Z 01007KT 01/00 A3033 RMK A01 T00130001  RH  092%=      5-min Rain = 0
KOD1 071920Z 01008KT 01/00 A3033 RMK A01 T00130001  RH  092%=      5-min Rain = 0
KOD1 071921Z 01007KT 01/00 A3033 RMK A01 T00130002  RH  092%=      5-min Rain = 0
KOD1 071922Z 01008KT 01/00 A3033 RMK A01 T00130003  RH  093%=      5-min Rain = 0
KOD1 071923Z 01009KT 01/00 A3033 RMK A01 T00130002  RH  092%=      5-min Rain = 0
KOD1 071924Z 01008KT 01/00 A3033 RMK A01 T00130002  RH  092%=      5-min Rain = 0
KOD1 071925Z 00009KT 01/00 A3033 RMK A01 T00130002  RH  092%=      5-min Rain = 0
KOD1 071926Z 00010KT 01/00 A3033 RMK A01 T00130001  RH  091%=      5-min Rain = 0
KOD1 071927Z 36009KT 01/00 A3033 RMK A01 T00130000  RH  092%=      5-min Rain = 0
KOD1 071928Z 35008KT 01/00 A3033 RMK A01 T00130001  RH  092%=      5-min Rain = 0
KOD1 071929Z 36007KT 01/00 A3033 RMK A01 T00130002  RH  092%=      5-min Rain = 0
KOD1 071930Z 35010KT 01/00 A3033 RMK A01 T00140002  RH  092%=      5-min Rain = 0
KOD1 071931Z 35010KT 01/00 A3034 RMK A01 T00130000  RH  091%=      5-min Rain = 0
KOD1 071932Z 00008KT 01/00 A3034 RMK A01 T001200-0  RH  091%=      5-min Rain = 0
KOD1 071933Z 36008KT 01/00 A3033 RMK A01 T00130001  RH  092%=      5-min Rain = 0
KOD1 071934Z 01009KT 01/00 A3033 RMK A01 T00130001  RH  092%=      5-min Rain = 0
KOD1 071935Z 00009KT 01/00 A3033 RMK A01 T00130001  RH  092%=      5-min Rain = 0
KOD1 071936Z 36010KT 01/00 A3033 RMK A01 T00130001  RH  092%=      5-min Rain = 0
KOD1 071937Z 36011KT 01/00 A3033 RMK A01 T001200-0  RH  091%=      5-min Rain = 0
KOD1 071938Z 35010KT 01/M00 A3033 RMK A01 T00121001  RH  091%=      5-min Rain = 0
KOD1 071939Z 35009KT 01/00 A3033 RMK A01 T00120000  RH  092%=      5-min Rain = 0
KOD1 071940Z 35010KT 01/00 A3033 RMK A01 T00120000  RH  091%=      5-min Rain = 0
KOD1 071941Z 35011KT 01/M00 A3033 RMK A01 T00121001  RH  091%=      5-min Rain = 0
KOD1 071942Z 36011KT 01/M00 A3033 RMK A01 T00121001  RH  091%=      5-min Rain = 0
KOD1 071943Z 35010KT 01/M00 A3033 RMK A01 T00121001  RH  091%=      5-min Rain = 0
KOD1 071944Z 36009KT 01/M00 A3033 RMK A01 T00121001  RH  091%=      5-min Rain = 0
KOD1 071945Z 00009KT 01/00 A3033 RMK A01 T00120000  RH  092%=      5-min Rain = 0
KOD1 071946Z 00009KT 01/00 A3033 RMK A01 T00130002  RH  092%=      5-min Rain = 0
KOD1 071947Z 01010KT 01/00 A3033 RMK A01 T00130001  RH  092%=      5-min Rain = 0
KOD1 071948Z 00010KT 01/00 A3033 RMK A01 T001200-0  RH  091%=      5-min Rain = 0
KOD1 071949Z 01009KT 01/00 A3032 RMK A01 T00120001  RH  092%=      5-min Rain = 0
KOD1 071950Z 01010KT 01/00 A3032 RMK A01 T00130002  RH  093%=      5-min Rain = 0
KOD1 071951Z 01009KT 01/00 A3032 RMK A01 T00130001  RH  092%=      5-min Rain = 0
KOD1 071952Z 01010KT 01/00 A3032 RMK A01 T00130002  RH  092%=      5-min Rain = 0
KOD1 071953Z 01009KT 01/00 A3032 RMK A01 T00120000  RH  092%=      5-min Rain = 0.01
KOD1 071954Z 36009KT 01/00 A3032 RMK A01 T00130002  RH  093%=      5-min Rain = 0
KOD1 071955Z 00010KT 01/00 A3032 RMK A01 T00130001  RH  092%=      5-min Rain = 0
KOD1 071956Z 00008KT 01/00 A3032 RMK A01 T00130002  RH  092%=      5-min Rain = 0
KOD1 071957Z 01008KT 01/00 A3032 RMK A01 T00130002  RH  093%=      5-min Rain = 0
KOD1 071958Z 01006KT 01/00 A3032 RMK A01 T00130003  RH  093%=      5-min Rain = 0
KOD1 071959Z 01008KT 01/00 A3032 RMK A01 T00130003  RH  093%=      5-min Rain = 0
KOD1 072000Z 01009KT 01/00 A3033 RMK A01 T00130003  RH  093%=      5-min Rain = 0
KOD1 072001Z 01010KT 01/00 A3033 RMK A01 T00120001  RH  092%=      5-min Rain = 0
KOD1 072002Z 01010KT 01/00 A3033 RMK A01 T00120000  RH  092%=      5-min Rain = 0
KOD1 072003Z 00008KT 01/00 A3033 RMK A01 T00120000  RH  092%=      5-min Rain = 0
KOD1 072004Z 00007KT 01/00 A3032 RMK A01 T00120001  RH  093%=      5-min Rain = 0
KOD1 072005Z 00008KT 01/00 A3032 RMK A01 T00120002  RH  093%=      5-min Rain = 0
KOD1 072006Z 01009KT 01/00 A3032 RMK A01 T00120003  RH  093%=      5-min Rain = 0
KOD1 072007Z 01008KT 01/00 A3032 RMK A01 T00120002  RH  093%=      5-min Rain = 0
KOD1 072008Z 00007KT 01/00 A3032 RMK A01 T00120002  RH  093%=      5-min Rain = 0
KOD1 072009Z 00010KT 01/00 A3032 RMK A01 T00120003  RH  093%=      5-min Rain = 0
KOD1 072010Z 01009KT 01/00 A3032 RMK A01 T00120002  RH  093%=      5-min Rain = 0
KOD1 072011Z 01009KT 01/00 A3032 RMK A01 T00120002  RH  093%=      5-min Rain = 0
KOD1 072012Z 01008KT 01/00 A3032 RMK A01 T00120002  RH  093%=      5-min Rain = 0
KOD1 072013Z 01009KT 01/00 A3032 RMK A01 T00120002  RH  093%=      5-min Rain = 0
KOD1 072014Z 36008KT 01/00 A3032 RMK A01 T00120002  RH  093%=      5-min Rain = 0
KOD1 072015Z 36009KT 01/00 A3032 RMK A01 T00120002  RH  093%=      5-min Rain = 0
KOD1 072016Z 00009KT 01/00 A3032 RMK A01 T00120002  RH  093%=      5-min Rain = 0
KOD1 072017Z 01007KT 01/00 A3032 RMK A01 T00120003  RH  093%=      5-min Rain = 0
KOD1 072018Z 01007KT 01/00 A3032 RMK A01 T00130004  RH  094%=      5-min Rain = 0
KOD1 072019Z 01008KT 01/00 A3032 RMK A01 T00130004  RH  094%=      5-min Rain = 0
KOD1 072020Z 02007KT 01/00 A3032 RMK A01 T00130003  RH  094%=      5-min Rain = 0
KOD1 072021Z 01008KT 01/00 A3032 RMK A01 T00130004  RH  094%=      5-min Rain = 0
KOD1 072022Z 01006KT 01/00 A3032 RMK A01 T00130004  RH  094%=      5-min Rain = 0
KOD1 072023Z 01007KT 01/01 A3032 RMK A01 T00130005  RH  094%=      5-min Rain = 0
KOD1 072024Z 01008KT 01/01 A3032 RMK A01 T00130005  RH  094%=      5-min Rain = 0
KOD1 072025Z 01007KT 01/00 A3032 RMK A01 T00130004  RH  094%=      5-min Rain = 0
KOD1 072026Z 02007KT 01/00 A3032 RMK A01 T00130004  RH  094%=      5-min Rain = 0
KOD1 072027Z 01008KT 01/01 A3032 RMK A01 T00130005  RH  094%=      5-min Rain = 0
KOD1 072028Z 01008KT 01/00 A3032 RMK A01 T00120004  RH  094%=      5-min Rain = 0
KOD1 072029Z 01009KT 01/00 A3032 RMK A01 T00120004  RH  094%=      5-min Rain = 0
KOD1 072030Z 01009KT 01/00 A3032 RMK A01 T00120004  RH  094%=      5-min Rain = 0
KOD1 072031Z 01010KT 01/00 A3032 RMK A01 T00120004  RH  094%=      5-min Rain = 0
KOD1 072032Z 01008KT 01/00 A3032 RMK A01 T00120004  RH  094%=      5-min Rain = 0
KOD1 072033Z 02009KT 01/00 A3031 RMK A01 T00120004  RH  095%=      5-min Rain = 0
KOD1 072034Z 02010KT 01/00 A3031 RMK A01 T00120004  RH  094%=      5-min Rain = 0
KOD1 072035Z 01010KT 01/00 A3031 RMK A01 T00120004  RH  095%=      5-min Rain = 0
KOD1 072036Z 01009KT 01/01 A3031 RMK A01 T00120005  RH  095%=      5-min Rain = 0
KOD1 072037Z 01009KT 01/01 A3031 RMK A01 T00120005  RH  095%=      5-min Rain = 0
KOD1 072038Z 01009KT 01/01 A3032 RMK A01 T00120005  RH  095%=      5-min Rain = 0
KOD1 072039Z 01008KT 01/01 A3032 RMK A01 T00120005  RH  095%=      5-min Rain = 0
KOD1 072040Z 01009KT 01/01 A3032 RMK A01 T00120005  RH  095%=      5-min Rain = 0
KOD1 072041Z 01007KT 01/01 A3032 RMK A01 T00130006  RH  095%=      5-min Rain = 0
KOD1 072042Z 01009KT 01/01 A3032 RMK A01 T00130005  RH  095%=      5-min Rain = 0
KOD1 072043Z 01009KT 01/01 A3032 RMK A01 T00120005  RH  095%=      5-min Rain = 0
KOD1 072044Z 00007KT 01/01 A3032 RMK A01 T00120005  RH  095%=      5-min Rain = 0
KOD1 072045Z 36010KT 01/01 A3033 RMK A01 T00130006  RH  095%=      5-min Rain = 0
KOD1 072046Z 36009KT 01/01 A3033 RMK A01 T00130005  RH  095%=      5-min Rain = 0
KOD1 072047Z 36010KT 01/01 A3033 RMK A01 T00120005  RH  095%=      5-min Rain = 0
KOD1 072048Z 01010KT 01/01 A3033 RMK A01 T00120005  RH  095%=      5-min Rain = 0
KOD1 072049Z 01009KT 01/01 A3033 RMK A01 T00120005  RH  095%=      5-min Rain = 0
KOD1 072050Z 00009KT 01/01 A3033 RMK A01 T00130005  RH  095%=      5-min Rain = 0
KOD1 072051Z 00010KT 01/01 A3033 RMK A01 T00130005  RH  095%=      5-min Rain = 0
KOD1 072052Z 00009KT 01/01 A3033 RMK A01 T00120005  RH  095%=      5-min Rain = 0
KOD1 072053Z 00009KT 01/01 A3033 RMK A01 T00120005  RH  095%=      5-min Rain = 0
KOD1 072054Z 00008KT 01/01 A3033 RMK A01 T00120005  RH  095%=      5-min Rain = 0
KOD1 072055Z 01008KT 01/01 A3033 RMK A01 T00130005  RH  095%=      5-min Rain = 0
KOD1 072056Z 01009KT 01/00 A3033 RMK A01 T00120004  RH  095%=      5-min Rain = 0
KOD1 072057Z 00010KT 01/01 A3033 RMK A01 T00120005  RH  095%=      5-min Rain = 0
KOD1 072058Z 01010KT 01/01 A3033 RMK A01 T00120005  RH  095%=      5-min Rain = 0
KOD1 072059Z 01009KT 01/01 A3033 RMK A01 T00130005  RH  095%=      5-min Rain = 0
KOD1 072100Z 01009KT 01/01 A3033 RMK A01 T00130005  RH  095%=      5-min Rain = 0
KOD1 072101Z 01009KT 01/01 A3033 RMK A01 T00130005  RH  095%=      5-min Rain = 0
KOD1 072102Z 00010KT 01/01 A3033 RMK A01 T00130006  RH  095%=      5-min Rain = 0
KOD1 072103Z 00010KT 01/01 A3033 RMK A01 T00130005  RH  095%=      5-min Rain = 0
KOD1 072104Z 00010KT 01/01 A3033 RMK A01 T00130005  RH  094%=      5-min Rain = 0
KOD1 072105Z 00009KT 01/01 A3034 RMK A01 T00130005  RH  094%=      5-min Rain = 0
KOD1 072106Z 36009KT 01/00 A3034 RMK A01 T00120004  RH  094%=      5-min Rain = 0
KOD1 072107Z 01009KT 01/00 A3034 RMK A01 T00120004  RH  094%=      5-min Rain = 0
KOD1 072108Z 00009KT 01/00 A3034 RMK A01 T00120004  RH  094%=      5-min Rain = 0
KOD1 072109Z 36009KT 01/00 A3034 RMK A01 T00130004  RH  094%=      5-min Rain = 0
KOD1 072110Z 00010KT 01/00 A3033 RMK A01 T00130004  RH  094%=      5-min Rain = 0
KOD1 072111Z 36010KT 01/00 A3033 RMK A01 T00120004  RH  094%=      5-min Rain = 0
KOD1 072112Z 00010KT 01/00 A3033 RMK A01 T00130004  RH  094%=      5-min Rain = 0
KOD1 072113Z 00010KT 01/00 A3033 RMK A01 T00120003  RH  094%=      5-min Rain = 0
KOD1 072114Z 00009KT 01/00 A3033 RMK A01 T00130004  RH  094%=      5-min Rain = 0
KOD1 072115Z 00009KT 01/00 A3033 RMK A01 T00130004  RH  094%=      5-min Rain = 0
KOD1 072116Z 36008KT 01/00 A3033 RMK A01 T00130004  RH  094%=      5-min Rain = 0
KOD1 072117Z 36008KT 01/01 A3033 RMK A01 T00130005  RH  094%=      5-min Rain = 0
KOD1 072118Z 36009KT 01/01 A3033 RMK A01 T00140005  RH  094%=      5-min Rain = 0
KOD1 072119Z 36008KT 01/01 A3033 RMK A01 T00140006  RH  094%=      5-min Rain = 0
KOD1 072120Z 00010KT 01/01 A3033 RMK A01 T00140006  RH  094%=      5-min Rain = 0
KOD1 072121Z 00011KT 01/01 A3033 RMK A01 T00140005  RH  094%=      5-min Rain = 0
KOD1 072122Z 01012KT 01/00 A3034 RMK A01 T00130004  RH  094%=      5-min Rain = 0
KOD1 072123Z 01010KT 01/00 A3034 RMK A01 T00140004  RH  094%=      5-min Rain = 0
KOD1 072124Z 01011KT 01/00 A3034 RMK A01 T00140004  RH  094%=      5-min Rain = 0
KOD1 072125Z 01010KT 01/00 A3034 RMK A01 T00140004  RH  094%=      5-min Rain = 0
KOD1 072126Z 01010KT 01/00 A3034 RMK A01 T00130004  RH  093%=      5-min Rain = 0
KOD1 072127Z 00011KT 01/00 A3034 RMK A01 T00140004  RH  093%=      5-min Rain = 0
KOD1 072128Z 36010KT 01/00 A3034 RMK A01 T00140004  RH  093%=      5-min Rain = 0
KOD1 072129Z 00011KT 01/00 A3034 RMK A01 T00140004  RH  093%=      5-min Rain = 0
KOD1 072130Z 00010KT 01/00 A3034 RMK A01 T00140004  RH  093%=      5-min Rain = 0
KOD1 072131Z 01009KT 01/00 A3033 RMK A01 T00140004  RH  093%=      5-min Rain = 0
KOD1 072132Z 01010KT 01/00 A3033 RMK A01 T00140004  RH  093%=      5-min Rain = 0
KOD1 072133Z 01010KT 01/00 A3033 RMK A01 T00140004  RH  093%=      5-min Rain = 0
KOD1 072134Z 01009KT 01/00 A3033 RMK A01 T00140004  RH  093%=      5-min Rain = 0
KOD1 072135Z 01010KT 01/00 A3033 RMK A01 T00140004  RH  093%=      5-min Rain = 0
KOD1 072136Z 00008KT 01/00 A3033 RMK A01 T00140004  RH  093%=      5-min Rain = 0
KOD1 072137Z 01007KT 01/01 A3033 RMK A01 T00140005  RH  093%=      5-min Rain = 0
KOD1 072138Z 01007KT 01/01 A3033 RMK A01 T00140005  RH  093%=      5-min Rain = 0
KOD1 072139Z 01009KT 01/01 A3033 RMK A01 T00140005  RH  093%=      5-min Rain = 0
KOD1 072140Z 01008KT 01/00 A3033 RMK A01 T00140004  RH  093%=      5-min Rain = 0
KOD1 072141Z 02008KT 01/00 A3033 RMK A01 T00140004  RH  093%=      5-min Rain = 0
KOD1 072142Z 02009KT 01/00 A3033 RMK A01 T00140003  RH  093%=      5-min Rain = 0
KOD1 072143Z 02008KT 01/00 A3033 RMK A01 T00140003  RH  093%=      5-min Rain = 0
KOD1 072144Z 02008KT 01/00 A3033 RMK A01 T00140004  RH  093%=      5-min Rain = 0
KOD1 072145Z 02010KT 01/00 A3033 RMK A01 T00140003  RH  093%=      5-min Rain = 0
KOD1 072146Z 02009KT 01/00 A3033 RMK A01 T00140002  RH  092%=      5-min Rain = 0
KOD1 072147Z 02010KT 01/00 A3033 RMK A01 T00140003  RH  092%=      5-min Rain = 0
KOD1 072148Z 02009KT 01/00 A3033 RMK A01 T00140002  RH  092%=      5-min Rain = 0
KOD1 072149Z 02008KT 01/00 A3033 RMK A01 T00140003  RH  093%=      5-min Rain = 0
KOD1 072150Z 03010KT 01/00 A3033 RMK A01 T00140003  RH  093%=      5-min Rain = 0
KOD1 072151Z 03009KT 01/00 A3033 RMK A01 T00140003  RH  092%=      5-min Rain = 0
KOD1 072152Z 02009KT 01/00 A3033 RMK A01 T00140003  RH  093%=      5-min Rain = 0
KOD1 072153Z 02008KT 01/00 A3033 RMK A01 T00140003  RH  093%=      5-min Rain = 0
KOD1 072154Z 02009KT 01/00 A3033 RMK A01 T00140003  RH  093%=      5-min Rain = 0
KOD1 072155Z 02010KT 01/00 A3033 RMK A01 T00140003  RH  092%=      5-min Rain = 0
KOD1 072156Z 02009KT 01/00 A3033 RMK A01 T00140002  RH  092%=      5-min Rain = 0
KOD1 072157Z 02009KT 01/00 A3033 RMK A01 T00140002  RH  092%=      5-min Rain = 0
KOD1 072158Z 02010KT 01/00 A3033 RMK A01 T00140002  RH  092%=      5-min Rain = 0
KOD1 072159Z 02009KT 01/00 A3033 RMK A01 T00140002  RH  092%=      5-min Rain = 0
KOD1 072200Z 03011KT 01/00 A3033 RMK A01 T00140002  RH  092%=      5-min Rain = 0
KOD1 072201Z 02009KT 01/00 A3033 RMK A01 T00140002  RH  092%=      5-min Rain = 0
KOD1 072202Z 02009KT 01/00 A3033 RMK A01 T00140002  RH  092%=      5-min Rain = 0
KOD1 072203Z 02009KT 01/00 A3033 RMK A01 T00140002  RH  092%=      5-min Rain = 0
KOD1 072204Z 03009KT 01/00 A3033 RMK A01 T00140002  RH  092%=      5-min Rain = 0
KOD1 072205Z 03008KT 01/00 A3033 RMK A01 T00140002  RH  092%=      5-min Rain = 0
KOD1 072206Z 02009KT 01/00 A3033 RMK A01 T00140002  RH  092%=      5-min Rain = 0
KOD1 072207Z 02008KT 01/00 A3033 RMK A01 T00140002  RH  092%=      5-min Rain = 0
KOD1 072208Z 02006KT 01/00 A3033 RMK A01 T00140003  RH  092%=      5-min Rain = 0
KOD1 072209Z 02008KT 02/00 A3033 RMK A01 T00150003  RH  092%=      5-min Rain = 0
KOD1 072210Z 02009KT 01/00 A3033 RMK A01 T00140002  RH  092%=      5-min Rain = 0
KOD1 072211Z 02009KT 01/00 A3033 RMK A01 T00140001  RH  091%=      5-min Rain = 0
KOD1 072212Z 02010KT 01/00 A3033 RMK A01 T00140002  RH  091%=      5-min Rain = 0
KOD1 072213Z 02010KT 01/00 A3033 RMK A01 T00140001  RH  091%=      5-min Rain = 0
KOD1 072214Z 02009KT 01/00 A3033 RMK A01 T00140000  RH  091%=      5-min Rain = 0
KOD1 072215Z 02009KT 01/00 A3033 RMK A01 T00140001  RH  091%=      5-min Rain = 0
KOD1 072216Z 02008KT 01/00 A3033 RMK A01 T00140001  RH  091%=      5-min Rain = 0
KOD1 072217Z 02009KT 01/00 A3034 RMK A01 T00140001  RH  091%=      5-min Rain = 0
KOD1 072218Z 02009KT 01/00 A3034 RMK A01 T00140000  RH  091%=      5-min Rain = 0
KOD1 072219Z 02008KT 01/00 A3034 RMK A01 T00140000  RH  091%=      5-min Rain = 0
KOD1 072220Z 02010KT 01/00 A3034 RMK A01 T00140000  RH  091%=      5-min Rain = 0
KOD1 072221Z 01009KT 01/00 A3034 RMK A01 T001400-0  RH  090%=      5-min Rain = 0.01
KOD1 072222Z 02009KT 01/00 A3034 RMK A01 T001400-0  RH  091%=      5-min Rain = 0
KOD1 072223Z 02007KT 01/00 A3034 RMK A01 T00140000  RH  091%=      5-min Rain = 0
KOD1 072224Z 02007KT 01/00 A3034 RMK A01 T00140001  RH  091%=      5-min Rain = 0
KOD1 072225Z 02008KT 01/00 A3034 RMK A01 T00140002  RH  091%=      5-min Rain = 0
KOD1 072226Z 02008KT 01/00 A3034 RMK A01 T00140001  RH  091%=      5-min Rain = 0
KOD1 072227Z 03008KT 01/00 A3034 RMK A01 T00140001  RH  091%=      5-min Rain = 0
KOD1 072228Z 02008KT 01/00 A3034 RMK A01 T00140002  RH  092%=      5-min Rain = 0
KOD1 072229Z 03008KT 01/00 A3034 RMK A01 T00140002  RH  092%=      5-min Rain = 0
KOD1 072230Z 02010KT 01/00 A3034 RMK A01 T00140001  RH  092%=      5-min Rain = 0
KOD1 072231Z 03008KT 01/00 A3034 RMK A01 T00140002  RH  092%=      5-min Rain = 0
KOD1 072232Z 02009KT 01/00 A3034 RMK A01 T00140001  RH  092%=      5-min Rain = 0
KOD1 072233Z 02009KT 01/00 A3034 RMK A01 T00130001  RH  092%=      5-min Rain = 0
KOD1 072234Z 03009KT 01/00 A3034 RMK A01 T00130001  RH  092%=      5-min Rain = 0
KOD1 072235Z 02010KT 01/00 A3034 RMK A01 T00130001  RH  092%=      5-min Rain = 0
KOD1 072236Z 02011KT 01/00 A3034 RMK A01 T00130000  RH  091%=      5-min Rain = 0
KOD1 072237Z 03008KT 01/00 A3034 RMK A01 T00130000  RH  091%=      5-min Rain = 0
KOD1 072238Z 02010KT 01/00 A3034 RMK A01 T00130001  RH  091%=      5-min Rain = 0
KOD1 072239Z 02009KT 01/00 A3034 RMK A01 T00130001  RH  091%=      5-min Rain = 0
KOD1 072240Z 02008KT 01/00 A3034 RMK A01 T00130001  RH  092%=      5-min Rain = 0
KOD1 072241Z 02009KT 01/00 A3034 RMK A01 T00130002  RH  092%=      5-min Rain = 0
KOD1 072242Z 02007KT 01/00 A3034 RMK A01 T00130002  RH  092%=      5-min Rain = 0
KOD1 072243Z 02008KT 01/00 A3034 RMK A01 T00130002  RH  092%=      5-min Rain = 0
KOD1 072244Z 02007KT 01/00 A3034 RMK A01 T00130002  RH  092%=      5-min Rain = 0
KOD1 072245Z 02008KT 01/00 A3034 RMK A01 T00130003  RH  092%=      5-min Rain = 0
KOD1 072246Z 01008KT 01/00 A3034 RMK A01 T00130002  RH  092%=      5-min Rain = 0
KOD1 072247Z 01008KT 01/00 A3034 RMK A01 T00130002  RH  093%=      5-min Rain = 0
KOD1 072248Z 01008KT 01/00 A3034 RMK A01 T00130002  RH  092%=      5-min Rain = 0
KOD1 072249Z 01008KT 01/00 A3034 RMK A01 T00130002  RH  092%=      5-min Rain = 0
KOD1 072250Z 01008KT 01/00 A3034 RMK A01 T00130002  RH  093%=      5-min Rain = 0
KOD1 072251Z 01007KT 01/00 A3034 RMK A01 T00130002  RH  093%=      5-min Rain = 0
KOD1 072252Z 01008KT 01/00 A3034 RMK A01 T00130003  RH  093%=      5-min Rain = 0
KOD1 072253Z 02009KT 01/00 A3034 RMK A01 T00130002  RH  092%=      5-min Rain = 0
KOD1 072254Z 01009KT 01/00 A3034 RMK A01 T00130002  RH  092%=      5-min Rain = 0
KOD1 072255Z 01009KT 01/00 A3034 RMK A01 T00130002  RH  092%=      5-min Rain = 0
KOD1 072256Z 01009KT 01/00 A3034 RMK A01 T00130001  RH  092%=      5-min Rain = 0
KOD1 072257Z 02009KT 01/00 A3034 RMK A01 T00130002  RH  092%=      5-min Rain = 0
KOD1 072258Z 01008KT 01/00 A3034 RMK A01 T00130002  RH  092%=      5-min Rain = 0
KOD1 072259Z 01007KT 01/00 A3034 RMK A01 T00130002  RH  092%=      5-min Rain = 0
KOD1 072300Z 01008KT 01/00 A3034 RMK A01 T00130002  RH  092%=      5-min Rain = 0
KOD1 072301Z 01010KT 01/00 A3034 RMK A01 T00130001  RH  092%=      5-min Rain = 0
KOD1 072302Z 02008KT 01/00 A3034 RMK A01 T00130001  RH  092%=      5-min Rain = 0
KOD1 072303Z 01010KT 01/00 A3034 RMK A01 T00130001  RH  092%=      5-min Rain = 0
KOD1 072304Z 01008KT 01/00 A3034 RMK A01 T00130001  RH  092%=      5-min Rain = 0
KOD1 072305Z 01009KT 01/00 A3034 RMK A01 T00130002  RH  092%=      5-min Rain = 0
KOD1 072306Z 01009KT 01/00 A3034 RMK A01 T00130001  RH  092%=      5-min Rain = 0
KOD1 072307Z 01009KT 01/00 A3034 RMK A01 T00130001  RH  092%=      5-min Rain = 0
KOD1 072308Z 00009KT 01/00 A3034 RMK A01 T00130001  RH  092%=      5-min Rain = 0
KOD1 072309Z 01010KT 01/00 A3034 RMK A01 T00130001  RH  092%=      5-min Rain = 0
KOD1 072310Z 01010KT 01/00 A3034 RMK A01 T00130001  RH  092%=      5-min Rain = 0
KOD1 072311Z 01011KT 01/00 A3034 RMK A01 T00130001  RH  092%=      5-min Rain = 0
KOD1 072312Z 01010KT 01/00 A3034 RMK A01 T00130001  RH  092%=      5-min Rain = 0
KOD1 072313Z 01010KT 01/00 A3034 RMK A01 T00120001  RH  092%=      5-min Rain = 0
KOD1 072314Z 01011KT 01/00 A3034 RMK A01 T00120000  RH  092%=      5-min Rain = 0
KOD1 072315Z 01010KT 01/00 A3034 RMK A01 T00120000  RH  092%=      5-min Rain = 0
KOD1 072316Z 01009KT 01/00 A3034 RMK A01 T00120000  RH  092%=      5-min Rain = 0
KOD1 072317Z 02011KT 01/00 A3034 RMK A01 T00120000  RH  092%=      5-min Rain = 0
KOD1 072318Z 01011KT 01/M00 A3034 RMK A01 T00121001  RH  092%=      5-min Rain = 0.01
KOD1 072319Z 01008KT 01/00 A3034 RMK A01 T001200-0  RH  092%=      5-min Rain = 0
KOD1 072320Z 01010KT 01/00 A3034 RMK A01 T00120000  RH  092%=      5-min Rain = 0
KOD1 072321Z 02010KT 01/00 A3034 RMK A01 T001100-0  RH  092%=      5-min Rain = 0
KOD1 072322Z 01009KT 01/00 A3034 RMK A01 T001100-0  RH  092%=      5-min Rain = 0
KOD1 072323Z 01010KT 01/M00 A3034 RMK A01 T00111001  RH  092%=      5-min Rain = 0
KOD1 072324Z 01010KT 01/M00 A3033 RMK A01 T00111001  RH  092%=      5-min Rain = 0
KOD1 072325Z 02010KT 01/M00 A3033 RMK A01 T00111001  RH  092%=      5-min Rain = 0
KOD1 072326Z 02010KT 01/M00 A3033 RMK A01 T00111001  RH  092%=      5-min Rain = 0
KOD1 072327Z 02010KT 01/M00 A3033 RMK A01 T00101001  RH  092%=      5-min Rain = 0
KOD1 072328Z 02010KT 01/M00 A3033 RMK A01 T00101001  RH  092%=      5-min Rain = 0
KOD1 072329Z 02009KT 01/M00 A3033 RMK A01 T00101001  RH  092%=      5-min Rain = 0
KOD1 072330Z 02010KT 01/M00 A3032 RMK A01 T00101001  RH  092%=      5-min Rain = 0
KOD1 072331Z 02010KT 01/M00 A3032 RMK A01 T00101001  RH  092%=      5-min Rain = 0
KOD1 072332Z 02011KT 01/M00 A3032 RMK A01 T00101001  RH  092%=      5-min Rain = 0
KOD1 072333Z 02012KT 01/M00 A3032 RMK A01 T00101001  RH  092%=      5-min Rain = 0
KOD1 072334Z 02011KT 01/M00 A3032 RMK A01 T00101001  RH  092%=      5-min Rain = 0
KOD1 072335Z 03010KT 01/M00 A3032 RMK A01 T00101001  RH  093%=      5-min Rain = 0
KOD1 072336Z 03010KT 01/M00 A3032 RMK A01 T00101001  RH  093%=      5-min Rain = 0
KOD1 072337Z 03010KT 01/00 A3032 RMK A01 T001000-0  RH  093%=      5-min Rain = 0
KOD1 072338Z 02009KT 01/00 A3032 RMK A01 T001000-0  RH  093%=      5-min Rain = 0
KOD1 072339Z 02009KT 01/00 A3032 RMK A01 T00100000  RH  093%=      5-min Rain = 0
KOD1 072340Z 02009KT 01/00 A3032 RMK A01 T00100000  RH  094%=      5-min Rain = 0
KOD1 072341Z 02009KT 01/00 A3032 RMK A01 T00100000  RH  094%=      5-min Rain = 0
KOD1 072342Z 02010KT 01/00 A3032 RMK A01 T00090000  RH  094%=      5-min Rain = 0
KOD1 072343Z 02009KT 01/00 A3032 RMK A01 T00090000  RH  094%=      5-min Rain = 0.01
KOD1 072344Z 02009KT 01/00 A3032 RMK A01 T00090000  RH  094%=      5-min Rain = 0
KOD1 072345Z 02009KT 01/00 A3032 RMK A01 T00090000  RH  094%=      5-min Rain = 0
KOD1 072346Z 02010KT 01/00 A3032 RMK A01 T00090001  RH  094%=      5-min Rain = 0
KOD1 072347Z 02009KT 01/00 A3032 RMK A01 T00090001  RH  094%=      5-min Rain = 0
KOD1 072348Z 02008KT 01/00 A3032 RMK A01 T00090001  RH  094%=      5-min Rain = 0
KOD1 072349Z 02009KT 01/00 A3032 RMK A01 T00090000  RH  094%=      5-min Rain = 0
KOD1 072350Z 02009KT 01/00 A3032 RMK A01 T00090000  RH  094%=      5-min Rain = 0
KOD1 072351Z 02008KT 01/00 A3032 RMK A01 T00090000  RH  094%=      5-min Rain = 0
KOD1 072352Z 02007KT 01/00 A3032 RMK A01 T00090001  RH  094%=      5-min Rain = 0
KOD1 072353Z 03007KT 01/00 A3032 RMK A01 T00090001  RH  095%=      5-min Rain = 0
KOD1 072354Z 03009KT 01/00 A3032 RMK A01 T00090001  RH  095%=      5-min Rain = 0
KOD1 072355Z 03009KT 01/00 A3032 RMK A01 T00090001  RH  095%=      5-min Rain = 0
KOD1 072356Z 03010KT 01/00 A3032 RMK A01 T00090001  RH  095%=      5-min Rain = 0
KOD1 072357Z 03008KT 01/00 A3032 RMK A01 T00090001  RH  095%=      5-min Rain = 0
KOD1 072358Z 03008KT 01/00 A3032 RMK A01 T00090002  RH  095%=      5-min Rain = 0
KOD1 072359Z 03009KT 01/00 A3032 RMK A01 T00090001  RH  095%=      5-min Rain = 0
KOD1 080000Z 03010KT 01/00 A3032 RMK A01 T00090001  RH  095%=      5-min Rain = 0
KOD1 080001Z 03011KT 01/00 A3032 RMK A01 T00090001  RH  095%=      5-min Rain = 0
KOD1 080002Z 03011KT 01/00 A3032 RMK A01 T00080001  RH  095%=      5-min Rain = 0
KOD1 080003Z 02009KT 01/00 A3032 RMK A01 T00080001  RH  095%=      5-min Rain = 0
KOD1 080004Z 03010KT 01/00 A3032 RMK A01 T00080001  RH  095%=      5-min Rain = 0
KOD1 080005Z 03009KT 01/00 A3032 RMK A01 T00080001  RH  095%=      5-min Rain = 0
KOD1 080006Z 02010KT 01/00 A3033 RMK A01 T00080001  RH  095%=      5-min Rain = 0
KOD1 080007Z 03010KT 01/00 A3033 RMK A01 T00080000  RH  095%=      5-min Rain = 0
KOD1 080008Z 02009KT 01/00 A3033 RMK A01 T00080000  RH  095%=      5-min Rain = 0
KOD1 080009Z 02008KT 01/00 A3033 RMK A01 T00080001  RH  095%=      5-min Rain = 0.01
KOD1 080010Z 02010KT 01/00 A3033 RMK A01 T00080000  RH  095%=      5-min Rain = 0
KOD1 080011Z 02011KT 01/00 A3033 RMK A01 T000700-0  RH  095%=      5-min Rain = 0
KOD1 080012Z 02010KT 01/M00 A3033 RMK A01 T00071001  RH  095%=      5-min Rain = 0
KOD1 080013Z 02010KT 01/M00 A3033 RMK A01 T00071001  RH  095%=      5-min Rain = 0
KOD1 080014Z 02010KT 01/M00 A3033 RMK A01 T00071001  RH  095%=      5-min Rain = 0
KOD1 080015Z 02010KT 01/M00 A3033 RMK A01 T00071001  RH  095%=      5-min Rain = 0
KOD1 080016Z 02010KT 01/M00 A3033 RMK A01 T00061001  RH  095%=      5-min Rain = 0
KOD1 080017Z 02010KT 01/M00 A3034 RMK A01 T00061001  RH  095%=      5-min Rain = 0
KOD1 080018Z 02011KT 01/M00 A3034 RMK A01 T00061001  RH  095%=      5-min Rain = 0
KOD1 080019Z 02009KT 01/M00 A3034 RMK A01 T00061001  RH  095%=      5-min Rain = 0
KOD1 080020Z 02010KT 01/M00 A3034 RMK A01 T00061001  RH  095%=      5-min Rain = 0
KOD1 080021Z 02009KT 01/00 A3034 RMK A01 T000600-0  RH  095%=      5-min Rain = 0
KOD1 080022Z 02010KT 01/00 A3034 RMK A01 T000600-0  RH  095%=      5-min Rain = 0
KOD1 080023Z 02010KT 01/M00 A3034 RMK A01 T00061001  RH  095%=      5-min Rain = 0
KOD1 080024Z 02008KT 01/00 A3034 RMK A01 T000600-0  RH  096%=      5-min Rain = 0.01
KOD1 080025Z 02010KT 01/00 A3034 RMK A01 T00060000  RH  096%=      5-min Rain = 0
KOD1 080026Z 02011KT 01/M00 A3034 RMK A01 T00061001  RH  096%=      5-min Rain = 0
KOD1 080027Z 02011KT 01/M00 A3034 RMK A01 T00061001  RH  096%=      5-min Rain = 0
KOD1 080028Z 02010KT 01/M00 A3034 RMK A01 T00051001  RH  096%=      5-min Rain = 0
KOD1 080029Z 02011KT 01/M00 A3034 RMK A01 T00051001  RH  096%=      5-min Rain = 0
KOD1 080030Z 01010KT 01/00 A3035 RMK A01 T000500-0  RH  096%=      5-min Rain = 0
KOD1 080031Z 02010KT 01/M00 A3035 RMK A01 T00051001  RH  096%=      5-min Rain = 0
KOD1 080032Z 02011KT 01/M00 A3035 RMK A01 T00051001  RH  096%=      5-min Rain = 0
KOD1 080033Z 02010KT 01/M00 A3035 RMK A01 T00051001  RH  096%=      5-min Rain = 0
KOD1 080034Z 02009KT 01/M00 A3035 RMK A01 T00051001  RH  096%=      5-min Rain = 0.01
KOD1 080035Z 02009KT 01/00 A3035 RMK A01 T000500-0  RH  096%=      5-min Rain = 0
KOD1 080036Z 02009KT 01/00 A3035 RMK A01 T000500-0  RH  096%=      5-min Rain = 0
KOD1 080037Z 02009KT 01/00 A3035 RMK A01 T000500-0  RH  096%=      5-min Rain = 0
KOD1 080038Z 02009KT 01/00 A3035 RMK A01 T000500-0  RH  096%=      5-min Rain = 0
KOD1 080039Z 02008KT 01/00 A3035 RMK A01 T000500-0  RH  096%=      5-min Rain = 0
KOD1 080040Z 02009KT 01/00 A3035 RMK A01 T000500-0  RH  096%=      5-min Rain = 0
KOD1 080041Z 02009KT 01/00 A3035 RMK A01 T000500-0  RH  097%=      5-min Rain = 0
KOD1 080042Z 02009KT 01/00 A3035 RMK A01 T000500-0  RH  097%=      5-min Rain = 0
KOD1 080043Z 02008KT 01/00 A3035 RMK A01 T000500-0  RH  097%=      5-min Rain = 0
KOD1 080044Z 02008KT 01/00 A3035 RMK A01 T00050000  RH  097%=      5-min Rain = 0
KOD1 080045Z 02009KT 01/00 A3035 RMK A01 T00050000  RH  097%=      5-min Rain = 0
KOD1 080046Z 02009KT 01/00 A3035 RMK A01 T000500-0  RH  097%=      5-min Rain = 0
KOD1 080047Z 01009KT 01/00 A3035 RMK A01 T00050000  RH  097%=      5-min Rain = 0
KOD1 080048Z 02008KT 01/00 A3035 RMK A01 T00050000  RH  097%=      5-min Rain = 0
KOD1 080049Z 02010KT 01/00 A3035 RMK A01 T00050000  RH  097%=      5-min Rain = 0
KOD1 080050Z 02009KT 01/00 A3035 RMK A01 T00050000  RH  097%=      5-min Rain = 0
KOD1 080051Z 03009KT 01/00 A3035 RMK A01 T00050000  RH  097%=      5-min Rain = 0
KOD1 080052Z 02008KT 01/00 A3035 RMK A01 T00050000  RH  097%=      5-min Rain = 0
KOD1 080053Z 02009KT 01/00 A3035 RMK A01 T00050000  RH  097%=      5-min Rain = 0.01
KOD1 080054Z 02008KT 01/00 A3034 RMK A01 T00050000  RH  097%=      5-min Rain = 0
KOD1 080055Z 02008KT 01/00 A3034 RMK A01 T00050001  RH  097%=      5-min Rain = 0
KOD1 080056Z 02009KT 01/00 A3034 RMK A01 T00050001  RH  097%=      5-min Rain = 0
KOD1 080057Z 03008KT 01/00 A3034 RMK A01 T00050001  RH  097%=      5-min Rain = 0
KOD1 080058Z 02008KT 01/00 A3034 RMK A01 T00050001  RH  097%=      5-min Rain = 0
KOD1 080059Z 03009KT 01/00 A3034 RMK A01 T00050001  RH  097%=      5-min Rain = 0
KOD1 080100Z 02007KT 01/00 A3034 RMK A01 T00050001  RH  097%=      5-min Rain = 0
KOD1 080101Z 02006KT 01/00 A3034 RMK A01 T00050001  RH  097%=      5-min Rain = 0
KOD1 080102Z 02008KT 01/00 A3035 RMK A01 T00050001  RH  097%=      5-min Rain = 0
KOD1 080103Z 02007KT 00/00 A3035 RMK A01 T00040000  RH  097%=      5-min Rain = 0
KOD1 080104Z 02007KT 00/00 A3035 RMK A01 T00040001  RH  097%=      5-min Rain = 0
KOD1 080105Z 01008KT 00/00 A3035 RMK A01 T00040000  RH  097%=      5-min Rain = 0
KOD1 080106Z 01007KT 00/00 A3035 RMK A01 T00040000  RH  097%=      5-min Rain = 0
KOD1 080107Z 01008KT 00/00 A3035 RMK A01 T00040000  RH  097%=      5-min Rain = 0
KOD1 080108Z 01008KT 00/00 A3035 RMK A01 T00040000  RH  097%=      5-min Rain = 0
KOD1 080109Z 01009KT 00/00 A3035 RMK A01 T000400-0  RH  097%=      5-min Rain = 0
KOD1 080110Z 01007KT 00/00 A3035 RMK A01 T000300-0  RH  097%=      5-min Rain = 0
KOD1 080111Z 01007KT 00/00 A3035 RMK A01 T00040000  RH  098%=      5-min Rain = 0
KOD1 080112Z 01007KT 00/00 A3035 RMK A01 T000300-0  RH  098%=      5-min Rain = 0
KOD1 080113Z 01009KT 00/00 A3035 RMK A01 T000300-0  RH  097%=      5-min Rain = 0
KOD1 080114Z 01009KT 00/00 A3035 RMK A01 T000300-0  RH  098%=      5-min Rain = 0
KOD1 080115Z 01008KT 00/M00 A3035 RMK A01 T00031001  RH  097%=      5-min Rain = 0
KOD1 080116Z 01007KT 00/00 A3035 RMK A01 T000300-0  RH  098%=      5-min Rain = 0.01
KOD1 080117Z 01007KT 00/00 A3035 RMK A01 T000300-0  RH  098%=      5-min Rain = 0
KOD1 080118Z 01008KT 00/00 A3035 RMK A01 T00030000  RH  098%=      5-min Rain = 0
KOD1 080119Z 01009KT 00/00 A3035 RMK A01 T00030000  RH  098%=      5-min Rain = 0
KOD1 080120Z 01009KT 00/00 A3035 RMK A01 T000300-0  RH  098%=      5-min Rain = 0
KOD1 080121Z 01009KT 00/M00 A3035 RMK A01 T00031001  RH  098%=      5-min Rain = 0
KOD1 080122Z 01010KT 00/M00 A3035 RMK A01 T00031001  RH  098%=      5-min Rain = 0
KOD1 080123Z 01009KT 00/M00 A3035 RMK A01 T00021001  RH  097%=      5-min Rain = 0
KOD1 080124Z 02010KT 00/M00 A3035 RMK A01 T00021001  RH  097%=      5-min Rain = 0
KOD1 080125Z 02009KT 00/M00 A3035 RMK A01 T00021001  RH  098%=      5-min Rain = 0
KOD1 080126Z 02009KT 00/M00 A3035 RMK A01 T00021001  RH  097%=      5-min Rain = 0
KOD1 080127Z 02009KT 00/M00 A3035 RMK A01 T00021001  RH  098%=      5-min Rain = 0
KOD1 080128Z 02009KT 00/M00 A3035 RMK A01 T00021002  RH  097%=      5-min Rain = 0
KOD1 080129Z 02008KT 00/M00 A3035 RMK A01 T00021001  RH  098%=      5-min Rain = 0
KOD1 080130Z 02010KT 00/M00 A3035 RMK A01 T00021002  RH  097%=      5-min Rain = 0
KOD1 080131Z 02010KT 00/M00 A3035 RMK A01 T00021002  RH  097%=      5-min Rain = 0
KOD1 080132Z 02009KT 00/M00 A3035 RMK A01 T00021002  RH  097%=      5-min Rain = 0
KOD1 080133Z 01009KT 00/M00 A3035 RMK A01 T00021002  RH  097%=      5-min Rain = 0
KOD1 080134Z 01009KT 00/M00 A3035 RMK A01 T00021002  RH  097%=      5-min Rain = 0
KOD1 080135Z 02008KT 00/M00 A3035 RMK A01 T00021002  RH  097%=      5-min Rain = 0
KOD1 080136Z 01007KT 00/M00 A3035 RMK A01 T00021002  RH  097%=      5-min Rain = 0
KOD1 080137Z 01008KT 00/M00 A3035 RMK A01 T00021001  RH  097%=      5-min Rain = 0
KOD1 080138Z 01007KT 00/M00 A3035 RMK A01 T00021001  RH  097%=      5-min Rain = 0
KOD1 080139Z 01008KT 00/M00 A3035 RMK A01 T00021001  RH  097%=      5-min Rain = 0
KOD1 080140Z 01008KT 00/M00 A3035 RMK A01 T00021001  RH  097%=      5-min Rain = 0
KOD1 080141Z 01008KT 00/M00 A3035 RMK A01 T00021001  RH  097%=      5-min Rain = 0
KOD1 080142Z 01008KT 00/M00 A3035 RMK A01 T00021001  RH  097%=      5-min Rain = 0
KOD1 080143Z 01007KT 00/M00 A3035 RMK A01 T00021001  RH  097%=      5-min Rain = 0
KOD1 080144Z 01008KT 00/M00 A3035 RMK A01 T00031001  RH  097%=      5-min Rain = 0
KOD1 080145Z 01007KT 00/M00 A3035 RMK A01 T00031001  RH  097%=      5-min Rain = 0
KOD1 080146Z 01008KT 00/M00 A3035 RMK A01 T00031001  RH  097%=      5-min Rain = 0
KOD1 080147Z 01008KT 00/M00 A3035 RMK A01 T00021001  RH  097%=      5-min Rain = 0
KOD1 080148Z 01009KT 00/M00 A3035 RMK A01 T00021002  RH  097%=      5-min Rain = 0
KOD1 080149Z 01010KT 00/M00 A3035 RMK A01 T00021002  RH  097%=      5-min Rain = 0
KOD1 080150Z 01009KT 00/M00 A3035 RMK A01 T00021002  RH  097%=      5-min Rain = 0
KOD1 080151Z 01009KT 00/M00 A3035 RMK A01 T00021002  RH  097%=      5-min Rain = 0
KOD1 080152Z 02010KT 00/M00 A3035 RMK A01 T00021002  RH  097%=      5-min Rain = 0
KOD1 080153Z 02008KT 00/M00 A3035 RMK A01 T00021002  RH  097%=      5-min Rain = 0
KOD1 080154Z 01008KT 00/M00 A3035 RMK A01 T00021002  RH  097%=      5-min Rain = 0
KOD1 080155Z 02008KT 00/M00 A3035 RMK A01 T00021002  RH  097%=      5-min Rain = 0
KOD1 080156Z 01007KT 00/M00 A3035 RMK A01 T00021002  RH  097%=      5-min Rain = 0
KOD1 080157Z 02006KT 00/M00 A3035 RMK A01 T00021002  RH  097%=      5-min Rain = 0
KOD1 080158Z 02007KT 00/M00 A3036 RMK A01 T00031001  RH  097%=      5-min Rain = 0
KOD1 080159Z 01009KT 00/M00 A3036 RMK A01 T00021002  RH  097%=      5-min Rain = 0
KOD1 080200Z 02008KT 00/M00 A3036 RMK A01 T00021002  RH  097%=      5-min Rain = 0
KOD1 080201Z 02008KT 00/M00 A3036 RMK A01 T00021002  RH  097%=      5-min Rain = 0
KOD1 080202Z 02009KT 00/M00 A3036 RMK A01 T00021003  RH  097%=      5-min Rain = 0
KOD1 080203Z 02008KT 00/M00 A3036 RMK A01 T00021003  RH  097%=      5-min Rain = 0
KOD1 080204Z 02009KT 00/M00 A3036 RMK A01 T00021003  RH  097%=      5-min Rain = 0
KOD1 080205Z 03008KT 00/M00 A3036 RMK A01 T00021002  RH  097%=      5-min Rain = 0
KOD1 080206Z 02008KT 00/M00 A3036 RMK A01 T00021002  RH  097%=      5-min Rain = 0
KOD1 080207Z 03008KT 00/M00 A3036 RMK A01 T00021003  RH  097%=      5-min Rain = 0
KOD1 080208Z 03008KT 00/M00 A3036 RMK A01 T00021002  RH  097%=      5-min Rain = 0
KOD1 080209Z 02008KT 00/M00 A3036 RMK A01 T00021002  RH  097%=      5-min Rain = 0
KOD1 080210Z 02009KT 00/M00 A3036 RMK A01 T00021003  RH  097%=      5-min Rain = 0
KOD1 080211Z 02008KT 00/M00 A3036 RMK A01 T00021003  RH  097%=      5-min Rain = 0
KOD1 080212Z 02008KT 00/M00 A3036 RMK A01 T00021003  RH  097%=      5-min Rain = 0
KOD1 080213Z 02008KT 00/M00 A3036 RMK A01 T00021003  RH  096%=      5-min Rain = 0
KOD1 080214Z 02008KT 00/M00 A3036 RMK A01 T00021003  RH  096%=      5-min Rain = 0
KOD1 080215Z 01009KT 00/M00 A3036 RMK A01 T00021003  RH  097%=      5-min Rain = 0
KOD1 080216Z 02009KT 00/M00 A3037 RMK A01 T00021003  RH  097%=      5-min Rain = 0
KOD1 080217Z 01009KT 00/M00 A3037 RMK A01 T00021003  RH  096%=      5-min Rain = 0
KOD1 080218Z 02009KT 00/M00 A3037 RMK A01 T00021003  RH  096%=      5-min Rain = 0
KOD1 080219Z 02007KT 00/M00 A3037 RMK A01 T00021003  RH  096%=      5-min Rain = 0
KOD1 080220Z 01009KT 00/M00 A3037 RMK A01 T00021003  RH  097%=      5-min Rain = 0
KOD1 080221Z 01008KT 00/M00 A3037 RMK A01 T00021003  RH  096%=      5-min Rain = 0
KOD1 080222Z 01009KT 00/M00 A3037 RMK A01 T00021003  RH  096%=      5-min Rain = 0
KOD1 080223Z 01008KT 00/M00 A3037 RMK A01 T00021003  RH  096%=      5-min Rain = 0
KOD1 080224Z 02009KT 00/M00 A3037 RMK A01 T00021003  RH  096%=      5-min Rain = 0
KOD1 080225Z 01008KT 00/M00 A3037 RMK A01 T00021003  RH  096%=      5-min Rain = 0
KOD1 080226Z 01009KT 00/M00 A3037 RMK A01 T00021003  RH  097%=      5-min Rain = 0
KOD1 080227Z 02009KT 00/M00 A3037 RMK A01 T00021003  RH  096%=      5-min Rain = 0
KOD1 080228Z 01009KT 00/M00 A3037 RMK A01 T00021003  RH  096%=      5-min Rain = 0
KOD1 080229Z 01009KT 00/M00 A3037 RMK A01 T00021003  RH  097%=      5-min Rain = 0
KOD1 080230Z 02008KT 00/M00 A3037 RMK A01 T00021003  RH  097%=      5-min Rain = 0
KOD1 080231Z 01008KT 00/M00 A3037 RMK A01 T00021003  RH  097%=      5-min Rain = 0
KOD1 080232Z 02009KT 00/M00 A3037 RMK A01 T00021003  RH  097%=      5-min Rain = 0
KOD1 080233Z 02008KT 00/M00 A3037 RMK A01 T00021003  RH  097%=      5-min Rain = 0
KOD1 080234Z 02008KT 00/M00 A3036 RMK A01 T00021003  RH  097%=      5-min Rain = 0
KOD1 080235Z 01007KT 00/M00 A3036 RMK A01 T00021002  RH  097%=      5-min Rain = 0
KOD1 080236Z 02009KT 00/M00 A3036 RMK A01 T00021002  RH  097%=      5-min Rain = 0
KOD1 080237Z 02008KT 00/M00 A3037 RMK A01 T00021002  RH  097%=      5-min Rain = 0
KOD1 080238Z 01007KT 00/M00 A3037 RMK A01 T00021002  RH  097%=      5-min Rain = 0
KOD1 080239Z 01008KT 00/M00 A3036 RMK A01 T00021002  RH  097%=      5-min Rain = 0
KOD1 080240Z 01008KT 00/M00 A3036 RMK A01 T00021002  RH  097%=      5-min Rain = 0
KOD1 080241Z 02008KT 00/M00 A3036 RMK A01 T00021002  RH  097%=      5-min Rain = 0
KOD1 080242Z 02010KT 00/M00 A3036 RMK A01 T00021002  RH  097%=      5-min Rain = 0
KOD1 080243Z 02010KT 00/M00 A3036 RMK A01 T00021003  RH  097%=      5-min Rain = 0
KOD1 080244Z 02009KT 00/M00 A3036 RMK A01 T00021002  RH  097%=      5-min Rain = 0
KOD1 080245Z 02010KT 00/M00 A3036 RMK A01 T00021002  RH  097%=      5-min Rain = 0
KOD1 080246Z 02009KT 00/M00 A3036 RMK A01 T00011003  RH  097%=      5-min Rain = 0
KOD1 080247Z 02009KT 00/M00 A3036 RMK A01 T00011003  RH  097%=      5-min Rain = 0
KOD1 080248Z 02010KT 00/M00 A3036 RMK A01 T00011003  RH  097%=      5-min Rain = 0
KOD1 080249Z 02009KT 00/M00 A3036 RMK A01 T00011003  RH  097%=      5-min Rain = 0
KOD1 080250Z 02009KT 00/M00 A3036 RMK A01 T00011003  RH  097%=      5-min Rain = 0
KOD1 080251Z 01009KT 00/M00 A3036 RMK A01 T00011002  RH  097%=      5-min Rain = 0
KOD1 080252Z 01010KT 00/M00 A3036 RMK A01 T00011003  RH  097%=      5-min Rain = 0
KOD1 080253Z 02010KT 00/M00 A3036 RMK A01 T00011003  RH  097%=      5-min Rain = 0
KOD1 080254Z 02010KT 00/M00 A3036 RMK A01 T00011003  RH  097%=      5-min Rain = 0
KOD1 080255Z 02010KT 00/M00 A3036 RMK A01 T00011003  RH  097%=      5-min Rain = 0
KOD1 080256Z 02010KT 00/M00 A3035 RMK A01 T00011003  RH  097%=      5-min Rain = 0
KOD1 080257Z 02011KT 00/M00 A3035 RMK A01 T00011003  RH  097%=      5-min Rain = 0
KOD1 080258Z 02010KT 00/M00 A3035 RMK A01 T00011003  RH  097%=      5-min Rain = 0
KOD1 080259Z 02011KT 00/M00 A3035 RMK A01 T00011003  RH  097%=      5-min Rain = 0
KOD1 080300Z 01011KT 00/00 A3035 RMK A01 T000000-3  RH  097%=      5-min Rain = 0
KOD1 080301Z 01009KT 00/00 A3035 RMK A01 T000000-3  RH  097%=      5-min Rain = 0
KOD1 080302Z 01008KT 00/M00 A3035 RMK A01 T00011003  RH  097%=      5-min Rain = 0
KOD1 080303Z 01008KT 00/M00 A3035 RMK A01 T00011003  RH  098%=      5-min Rain = 0
KOD1 080304Z 01010KT 00/M00 A3035 RMK A01 T00011002  RH  098%=      5-min Rain = 0
KOD1 080305Z 02011KT 00/M00 A3035 RMK A01 T00011003  RH  098%=      5-min Rain = 0
KOD1 080306Z 01008KT 00/M00 A3035 RMK A01 T00011003  RH  098%=      5-min Rain = 0
KOD1 080307Z 02011KT 00/M00 A3036 RMK A01 T00011003  RH  098%=      5-min Rain = 0
KOD1 080308Z 01009KT 00/M00 A3036 RMK A01 T00011003  RH  098%=      5-min Rain = 0
KOD1 080309Z 01008KT 00/M00 A3036 RMK A01 T00011003  RH  098%=      5-min Rain = 0
KOD1 080310Z 01009KT 00/M00 A3036 RMK A01 T00011002  RH  098%=      5-min Rain = 0
KOD1 080311Z 01011KT 00/M00 A3036 RMK A01 T00011002  RH  098%=      5-min Rain = 0
KOD1 080312Z 01009KT 00/M00 A3036 RMK A01 T00011002  RH  098%=      5-min Rain = 0
KOD1 080313Z 01007KT 00/M00 A3037 RMK A01 T00011002  RH  098%=      5-min Rain = 0
KOD1 080314Z 00009KT 00/M00 A3037 RMK A01 T00011002  RH  098%=      5-min Rain = 0
KOD1 080315Z 01010KT 00/M00 A3036 RMK A01 T00011002  RH  098%=      5-min Rain = 0
KOD1 080316Z 01009KT 00/M00 A3036 RMK A01 T00011002  RH  098%=      5-min Rain = 0
KOD1 080317Z 01010KT 00/M00 A3036 RMK A01 T00011002  RH  098%=      5-min Rain = 0
KOD1 080318Z 01010KT 00/M00 A3036 RMK A01 T00011002  RH  098%=      5-min Rain = 0
KOD1 080319Z 01011KT 00/M00 A3036 RMK A01 T00011002  RH  098%=      5-min Rain = 0
KOD1 080320Z 01010KT 00/00 A3036 RMK A01 T000000-3  RH  098%=      5-min Rain = 0
KOD1 080321Z 01009KT 00/00 A3036 RMK A01 T000000-3  RH  098%=      5-min Rain = 0
KOD1 080322Z 01008KT 00/M00 A3036 RMK A01 T00011002  RH  098%=      5-min Rain = 0
KOD1 080323Z 01009KT 00/M00 A3036 RMK A01 T00011002  RH  098%=      5-min Rain = 0
KOD1 080324Z 01009KT 00/M00 A3036 RMK A01 T00011002  RH  098%=      5-min Rain = 0
KOD1 080325Z 00008KT 00/M00 A3036 RMK A01 T00011002  RH  098%=      5-min Rain = 0
KOD1 080326Z 01009KT 00/M00 A3036 RMK A01 T00011002  RH  098%=      5-min Rain = 0
KOD1 080327Z 01011KT 00/00 A3036 RMK A01 T000000-3  RH  098%=      5-min Rain = 0
KOD1 080328Z 01011KT 00/00 A3036 RMK A01 T00-000-3  RH  098%=      5-min Rain = 0
KOD1 080329Z 01009KT 00/00 A3036 RMK A01 T00-000-3  RH  098%=      5-min Rain = 0
KOD1 080330Z 01008KT 00/00 A3036 RMK A01 T00-000-3  RH  098%=      5-min Rain = 0
KOD1 080331Z 00009KT 00/00 A3036 RMK A01 T000000-3  RH  098%=      5-min Rain = 0
KOD1 080332Z 01009KT 00/00 A3036 RMK A01 T00-000-3  RH  098%=      5-min Rain = 0
KOD1 080333Z 01009KT 00/00 A3036 RMK A01 T00-000-3  RH  098%=      5-min Rain = 0
KOD1 080334Z 01010KT 00/00 A3036 RMK A01 T00-000-3  RH  098%=      5-min Rain = 0
KOD1 080335Z 01009KT M00/M00 A3036 RMK A01 T10011004  RH  098%=      5-min Rain = 0
KOD1 080336Z 00010KT M00/M00 A3037 RMK A01 T10011004  RH  098%=      5-min Rain = 0
KOD1 080337Z 00011KT M00/M00 A3037 RMK A01 T10011004  RH  098%=      5-min Rain = 0
KOD1 080338Z 01011KT M00/M00 A3037 RMK A01 T10011004  RH  098%=      5-min Rain = 0
KOD1 080339Z 01009KT M00/M00 A3037 RMK A01 T10011004  RH  098%=      5-min Rain = 0
KOD1 080340Z 01010KT M00/M00 A3036 RMK A01 T10011004  RH  098%=      5-min Rain = 0
KOD1 080341Z 01011KT M00/M00 A3036 RMK A01 T10011004  RH  098%=      5-min Rain = 0
KOD1 080342Z 01010KT M00/M00 A3036 RMK A01 T10011004  RH  098%=      5-min Rain = 0
KOD1 080343Z 01010KT M00/M00 A3036 RMK A01 T10011004  RH  098%=      5-min Rain = 0
KOD1 080344Z 01011KT M00/M00 A3036 RMK A01 T10011004  RH  098%=      5-min Rain = 0
KOD1 080345Z 01010KT M00/M00 A3036 RMK A01 T10011004  RH  098%=      5-min Rain = 0
KOD1 080346Z 01011KT M00/M00 A3036 RMK A01 T10011004  RH  098%=      5-min Rain = 0
KOD1 080347Z 01009KT M00/M00 A3036 RMK A01 T10011004  RH  098%=      5-min Rain = 0
KOD1 080348Z 01010KT M00/M00 A3036 RMK A01 T10011004  RH  098%=      5-min Rain = 0
KOD1 080349Z 02009KT M00/M00 A3036 RMK A01 T10011004  RH  098%=      5-min Rain = 0
KOD1 080350Z 02009KT M00/M00 A3036 RMK A01 T10011004  RH  098%=      5-min Rain = 0
KOD1 080351Z 01010KT M00/M00 A3036 RMK A01 T10011004  RH  098%=      5-min Rain = 0
KOD1 080352Z 01012KT M00/M00 A3036 RMK A01 T10011004  RH  098%=      5-min Rain = 0
KOD1 080353Z 01010KT M00/M00 A3036 RMK A01 T10011004  RH  098%=      5-min Rain = 0
KOD1 080354Z 02009KT M00/M00 A3036 RMK A01 T10011004  RH  098%=      5-min Rain = 0
KOD1 080355Z 02009KT M00/M00 A3036 RMK A01 T10011004  RH  098%=      5-min Rain = 0
KOD1 080356Z 02008KT M00/M00 A3036 RMK A01 T10011004  RH  098%=      5-min Rain = 0
KOD1 080357Z 01007KT M00/M00 A3036 RMK A01 T10011004  RH  098%=      5-min Rain = 0
KOD1 080358Z 01009KT M00/M00 A3036 RMK A01 T10011004  RH  098%=      5-min Rain = 0
KOD1 080359Z 01008KT M00/M00 A3036 RMK A01 T10011003  RH  098%=      5-min Rain = 0
KOD1 080400Z 02007KT M00/M00 A3036 RMK A01 T10011003  RH  098%=      5-min Rain = 0
KOD1 080401Z 01008KT M00/M00 A3036 RMK A01 T10011003  RH  098%=      5-min Rain = 0
KOD1 080402Z 01009KT M00/M00 A3036 RMK A01 T10011003  RH  098%=      5-min Rain = 0
KOD1 080403Z 01008KT M00/M00 A3036 RMK A01 T10011003  RH  098%=      5-min Rain = 0
KOD1 080404Z 01007KT M00/M00 A3036 RMK A01 T10011003  RH  098%=      5-min Rain = 0
KOD1 080405Z 01008KT M00/M00 A3036 RMK A01 T10011003  RH  098%=      5-min Rain = 0
KOD1 080406Z 01007KT M00/M00 A3036 RMK A01 T10011003  RH  098%=      5-min Rain = 0
KOD1 080407Z 01009KT M00/M00 A3036 RMK A01 T10011003  RH  098%=      5-min Rain = 0
KOD1 080408Z 01009KT M00/M00 A3036 RMK A01 T10011003  RH  098%=      5-min Rain = 0
KOD1 080409Z 01010KT M00/M00 A3036 RMK A01 T10011003  RH  098%=      5-min Rain = 0
KOD1 080410Z 01009KT M00/M00 A3036 RMK A01 T10011004  RH  098%=      5-min Rain = 0
KOD1 080411Z 01010KT M00/M00 A3035 RMK A01 T10011004  RH  098%=      5-min Rain = 0.01
KOD1 080412Z 01010KT M00/M00 A3035 RMK A01 T10011004  RH  098%=      5-min Rain = 0
KOD1 080413Z 01010KT M00/M00 A3035 RMK A01 T10021004  RH  098%=      5-min Rain = 0
KOD1 080414Z 01010KT M00/M00 A3035 RMK A01 T10021004  RH  098%=      5-min Rain = 0
KOD1 080415Z 01010KT M00/M00 A3035 RMK A01 T10011004  RH  098%=      5-min Rain = 0
KOD1 080416Z 01008KT M00/M00 A3035 RMK A01 T10011004  RH  098%=      5-min Rain = 0
KOD1 080417Z 01010KT M00/M00 A3035 RMK A01 T10011003  RH  098%=      5-min Rain = 0
KOD1 080418Z 01011KT M00/M00 A3035 RMK A01 T10011004  RH  098%=      5-min Rain = 0
KOD1 080419Z 01010KT M00/M00 A3035 RMK A01 T10021004  RH  098%=      5-min Rain = 0
KOD1 080420Z 01009KT M00/M00 A3035 RMK A01 T10011004  RH  098%=      5-min Rain = 0
KOD1 080421Z 01010KT M00/M00 A3035 RMK A01 T10021004  RH  098%=      5-min Rain = 0
KOD1 080422Z 01010KT M00/M00 A3035 RMK A01 T10021004  RH  098%=      5-min Rain = 0
KOD1 080423Z 01010KT M00/M00 A3035 RMK A01 T10021004  RH  099%=      5-min Rain = 0
KOD1 080424Z 01010KT M00/M00 A3035 RMK A01 T10021004  RH  099%=      5-min Rain = 0
KOD1 080425Z 01010KT M00/M00 A3035 RMK A01 T10021004  RH  099%=      5-min Rain = 0
KOD1 080426Z 01011KT M00/M00 A3035 RMK A01 T10021004  RH  099%=      5-min Rain = 0
KOD1 080427Z 01010KT M00/M00 A3035 RMK A01 T10021004  RH  099%=      5-min Rain = 0
KOD1 080428Z 01010KT M00/M00 A3035 RMK A01 T10021004  RH  099%=      5-min Rain = 0
KOD1 080429Z 01012KT M00/M00 A3035 RMK A01 T10021004  RH  099%=      5-min Rain = 0
KOD1 080430Z 01014KT M00/M00 A3035 RMK A01 T10021004  RH  099%=      5-min Rain = 0
KOD1 080431Z 01012KT M00/M01 A3035 RMK A01 T10031005  RH  099%=      5-min Rain = 0
KOD1 080432Z 01011KT M00/M01 A3035 RMK A01 T10031005  RH  099%=      5-min Rain = 0
KOD1 080433Z 01010KT M00/M01 A3035 RMK A01 T10031005  RH  099%=      5-min Rain = 0
KOD1 080434Z 01011KT M00/M00 A3035 RMK A01 T10031004  RH  099%=      5-min Rain = 0
KOD1 080435Z 01012KT M00/M00 A3035 RMK A01 T10021004  RH  099%=      5-min Rain = 0
KOD1 080436Z 01013KT M00/M00 A3035 RMK A01 T10021004  RH  099%=      5-min Rain = 0
KOD1 080437Z 01012KT M00/M01 A3035 RMK A01 T10031005  RH  099%=      5-min Rain = 0
KOD1 080438Z 01011KT M00/M01 A3035 RMK A01 T10031005  RH  099%=      5-min Rain = 0
KOD1 080439Z 01011KT M00/M00 A3035 RMK A01 T10031004  RH  099%=      5-min Rain = 0
KOD1 080440Z 01011KT M00/M00 A3035 RMK A01 T10021004  RH  099%=      5-min Rain = 0
KOD1 080441Z 01012KT M00/M00 A3035 RMK A01 T10021004  RH  099%=      5-min Rain = 0
KOD1 080442Z 01010KT M00/M00 A3035 RMK A01 T10021004  RH  099%=      5-min Rain = 0
KOD1 080443Z 01010KT M00/M00 A3035 RMK A01 T10021004  RH  099%=      5-min Rain = 0
KOD1 080444Z 01009KT M00/M00 A3035 RMK A01 T10021004  RH  099%=      5-min Rain = 0
KOD1 080445Z 01008KT M00/M00 A3035 RMK A01 T10021003  RH  099%=      5-min Rain = 0
KOD1 080446Z 01010KT M00/M00 A3035 RMK A01 T10011003  RH  099%=      5-min Rain = 0
KOD1 080447Z 01009KT M00/M00 A3035 RMK A01 T10021003  RH  099%=      5-min Rain = 0
KOD1 080448Z 01009KT M00/M00 A3035 RMK A01 T10021003  RH  099%=      5-min Rain = 0
KOD1 080449Z 00011KT M00/M00 A3035 RMK A01 T10021003  RH  099%=      5-min Rain = 0
KOD1 080450Z 01010KT M00/M00 A3035 RMK A01 T10011003  RH  099%=      5-min Rain = 0
KOD1 080451Z 00011KT M00/M00 A3035 RMK A01 T10011003  RH  099%=      5-min Rain = 0
KOD1 080452Z 00010KT M00/M00 A3035 RMK A01 T10011003  RH  099%=      5-min Rain = 0
KOD1 080453Z 01012KT M00/M00 A3035 RMK A01 T10011003  RH  099%=      5-min Rain = 0
KOD1 080454Z 01010KT M00/M00 A3035 RMK A01 T10021003  RH  099%=      5-min Rain = 0
KOD1 080455Z 00010KT M00/M00 A3035 RMK A01 T10011003  RH  099%=      5-min Rain = 0
KOD1 080456Z 00010KT M00/M00 A3035 RMK A01 T10011003  RH  099%=      5-min Rain = 0
KOD1 080457Z 01012KT M00/M00 A3035 RMK A01 T10011003  RH  099%=      5-min Rain = 0
KOD1 080458Z 01012KT M00/M00 A3035 RMK A01 T10011003  RH  099%=      5-min Rain = 0
KOD1 080459Z 01010KT M00/M00 A3035 RMK A01 T10021003  RH  099%=      5-min Rain = 0
KOD1 080500Z 01010KT M00/M00 A3035 RMK A01 T10011003  RH  099%=      5-min Rain = 0
KOD1 080501Z 01011KT M00/M00 A3035 RMK A01 T10011003  RH  099%=      5-min Rain = 0
KOD1 080502Z 00012KT M00/M00 A3035 RMK A01 T10011003  RH  099%=      5-min Rain = 0
KOD1 080503Z 01010KT M00/M00 A3035 RMK A01 T10011003  RH  099%=      5-min Rain = 0
KOD1 080504Z 00010KT M00/M00 A3035 RMK A01 T10011003  RH  099%=      5-min Rain = 0
KOD1 080505Z 00010KT M00/M00 A3035 RMK A01 T10011003  RH  099%=      5-min Rain = 0
KOD1 080506Z 00011KT M00/M00 A3035 RMK A01 T10011003  RH  099%=      5-min Rain = 0
KOD1 080507Z 01011KT M00/M00 A3035 RMK A01 T10011003  RH  099%=      5-min Rain = 0
KOD1 080508Z 00012KT M00/M00 A3036 RMK A01 T10011003  RH  099%=      5-min Rain = 0
KOD1 080509Z 00011KT M00/M00 A3036 RMK A01 T10011003  RH  099%=      5-min Rain = 0
KOD1 080510Z 01014KT M00/M00 A3036 RMK A01 T10011003  RH  098%=      5-min Rain = 0
KOD1 080511Z 01013KT M00/M00 A3036 RMK A01 T10021004  RH  098%=      5-min Rain = 0
KOD1 080512Z 00011KT M00/M00 A3035 RMK A01 T10011004  RH  099%=      5-min Rain = 0
KOD1 080513Z 01011KT M00/M00 A3035 RMK A01 T10011003  RH  099%=      5-min Rain = 0
KOD1 080514Z 01012KT M00/M00 A3035 RMK A01 T10011003  RH  099%=      5-min Rain = 0
KOD1 080515Z 00010KT M00/M00 A3035 RMK A01 T10011003  RH  099%=      5-min Rain = 0
KOD1 080516Z 01010KT M00/M00 A3035 RMK A01 T10011003  RH  099%=      5-min Rain = 0
KOD1 080517Z 01012KT M00/M00 A3035 RMK A01 T10011003  RH  099%=      5-min Rain = 0
KOD1 080518Z 01011KT M00/M00 A3035 RMK A01 T10011003  RH  099%=      5-min Rain = 0
KOD1 080519Z 01010KT M00/M00 A3035 RMK A01 T10011003  RH  099%=      5-min Rain = 0
KOD1 080520Z 01012KT M00/M00 A3035 RMK A01 T10011003  RH  099%=      5-min Rain = 0
KOD1 080521Z 01011KT M00/M00 A3035 RMK A01 T10011003  RH  099%=      5-min Rain = 0
KOD1 080522Z 01010KT M00/M00 A3035 RMK A01 T10011003  RH  099%=      5-min Rain = 0
KOD1 080523Z 01011KT 00/00 A3035 RMK A01 T00-000-2  RH  099%=      5-min Rain = 0
KOD1 080524Z 01012KT 00/00 A3035 RMK A01 T00-000-2  RH  099%=      5-min Rain = 0
KOD1 080525Z 01012KT 00/00 A3035 RMK A01 T00-000-3  RH  099%=      5-min Rain = 0
KOD1 080526Z 01010KT 00/00 A3035 RMK A01 T00-000-2  RH  099%=      5-min Rain = 0
KOD1 080527Z 01011KT 00/00 A3035 RMK A01 T00-000-2  RH  099%=      5-min Rain = 0
KOD1 080528Z 01011KT 00/00 A3035 RMK A01 T00-000-2  RH  099%=      5-min Rain = 0
KOD1 080529Z 01011KT 00/00 A3035 RMK A01 T00-000-2  RH  099%=      5-min Rain = 0
KOD1 080530Z 01010KT 00/00 A3035 RMK A01 T00-000-2  RH  099%=      5-min Rain = 0
KOD1 080531Z 01010KT 00/00 A3035 RMK A01 T00-000-2  RH  099%=      5-min Rain = 0
KOD1 080532Z 01009KT 00/00 A3035 RMK A01 T00-000-2  RH  099%=      5-min Rain = 0
KOD1 080533Z 01010KT 00/00 A3035 RMK A01 T00-000-2  RH  099%=      5-min Rain = 0
KOD1 080534Z 01011KT 00/00 A3035 RMK A01 T00-000-2  RH  099%=      5-min Rain = 0
KOD1 080535Z 00009KT 00/00 A3035 RMK A01 T00-000-2  RH  099%=      5-min Rain = 0
KOD1 080536Z 00012KT 00/00 A3035 RMK A01 T000000-2  RH  099%=      5-min Rain = 0
KOD1 080537Z 01013KT 00/00 A3035 RMK A01 T00-000-2  RH  099%=      5-min Rain = 0
KOD1 080538Z 00014KT M00/M00 A3035 RMK A01 T10011003  RH  099%=      5-min Rain = 0
KOD1 080539Z 01014KT M00/M00 A3034 RMK A01 T10011003  RH  099%=      5-min Rain = 0
KOD1 080540Z 01014KT M00/M00 A3034 RMK A01 T10011003  RH  099%=      5-min Rain = 0
KOD1 080541Z 01012KT M00/M00 A3034 RMK A01 T10011003  RH  099%=      5-min Rain = 0
KOD1 080542Z 01011KT M00/M00 A3034 RMK A01 T10011002  RH  099%=      5-min Rain = 0
KOD1 080543Z 01013KT 00/00 A3034 RMK A01 T00-000-2  RH  099%=      5-min Rain = 0
KOD1 080544Z 01013KT 00/00 A3034 RMK A01 T00-000-2  RH  099%=      5-min Rain = 0
KOD1 080545Z 01011KT 00/00 A3034 RMK A01 T00-000-2  RH  099%=      5-min Rain = 0
KOD1 080546Z 36010KT 00/00 A3034 RMK A01 T00-000-2  RH  099%=      5-min Rain = 0
KOD1 080547Z 00011KT 00/00 A3034 RMK A01 T00-000-2  RH  099%=      5-min Rain = 0
KOD1 080548Z 00012KT 00/00 A3034 RMK A01 T00-000-2  RH  099%=      5-min Rain = 0
KOD1 080549Z 01011KT 00/00 A3034 RMK A01 T00-000-2  RH  099%=      5-min Rain = 0
KOD1 080550Z 01011KT 00/00 A3034 RMK A01 T00-000-2  RH  099%=      5-min Rain = 0
KOD1 080551Z 00011KT 00/00 A3034 RMK A01 T00-000-2  RH  099%=      5-min Rain = 0
KOD1 080552Z 01009KT 00/00 A3034 RMK A01 T000000-2  RH  099%=      5-min Rain = 0
KOD1 080553Z 00008KT 00/00 A3034 RMK A01 T000000-1  RH  099%=      5-min Rain = 0
KOD1 080554Z 00010KT 00/00 A3034 RMK A01 T000000-1  RH  099%=      5-min Rain = 0
KOD1 080555Z 36008KT 00/00 A3034 RMK A01 T000000-1  RH  099%=      5-min Rain = 0
KOD1 080556Z 36011KT 00/M00 A3034 RMK A01 T00011001  RH  099%=      5-min Rain = 0
KOD1 080557Z 00014KT 00/00 A3034 RMK A01 T000000-2  RH  099%=      5-min Rain = 0
KOD1 080558Z 01013KT 00/00 A3034 RMK A01 T00-000-2  RH  099%=      5-min Rain = 0
KOD1 080559Z 00011KT 00/00 A3034 RMK A01 T000000-2  RH  099%=      5-min Rain = 0

Page generated in 0.0795 seconds.